DW8187 Weather Reports


time (UTC)temp
F
wind
direction
speed
knots
gust
knots
rain 1hr
in
rain 24hr
in
rain mn
in
humidity
%
barometer
mb
20260509054903 85 7 5.2 7.8 0.00 0.00 0.00 60 1016.9
20260509054803 85 8 5.2 7.8 0.00 0.00 0.00 60 1016.9
20260509054703 85 5 5.2 7.8 0.00 0.00 0.00 60 1016.7
20260509054603 85 6 5.2 8.7 0.00 0.00 0.00 60 1016.9
20260509054503 85 13 6.1 8.7 0.00 0.00 0.00 60 1017.1
20260509054403 85 18 6.1 8.7 0.00 0.00 0.00 60 1016.9
20260509054303 85 18 6.1 8.7 0.00 0.00 0.00 60 1017.1
20260509054203 85 13 5.2 8.7 0.00 0.00 0.00 60 1017.0
20260509054103 85 13 5.2 8.7 0.00 0.00 0.00 60 1017.1
20260509054003 85 11 5.2 8.7 0.00 0.00 0.00 60 1017.0
20260509053903 85 11 5.2 8.7 0.00 0.00 0.00 60 1017.1
20260509053803 85 15 5.2 8.7 0.00 0.00 0.00 60 1017.2
20260509053703 85 17 5.2 8.7 0.00 0.00 0.00 60 1017.2
20260509053603 85 18 5.2 8.7 0.00 0.00 0.00 60 1017.3
20260509053503 85 11 4.3 7.8 0.00 0.00 0.00 60 1017.2
20260509053404 85 357 4.3 7.8 0.00 0.00 0.00 60 1017.3
20260509053303 85 352 4.3 7.8 0.00 0.00 0.00 60 1017.3
20260509053225 85 354 4.3 7.8 0.00 0.00 0.00 60 1017.2
20260509053124 85 355 4.3 7.8 0.00 0.00 0.00 60 1017.3
20260509053003 85 354 4.3 7.8 0.00 0.00 0.00 60 1017.3
20260509052903 85 350 4.3 7.8 0.00 0.00 0.00 60 1017.3
20260509052824 85 349 4.3 7.8 0.00 0.00 0.00 60 1017.3
20260509052703 85 342 4.3 7.0 0.00 0.00 0.00 60 1017.3
20260509052603 85 340 4.3 7.0 0.00 0.00 0.00 60 1017.5
20260509052524 85 340 5.2 7.0 0.00 0.00 0.00 60 1017.4
20260509052424 85 341 5.2 7.0 0.00 0.00 0.00 60 1017.6
20260509052306 85 342 5.2 7.0 0.00 0.00 0.00 60 1017.5
20260509052203 85 343 5.2 7.0 0.00 0.00 0.00 60 1017.5
20260509052103 85 347 5.2 9.6 0.00 0.00 0.00 60 1017.7
20260509052003 85 350 6.1 9.6 0.00 0.00 0.00 60 1017.6
20260509051924 85 352 6.1 9.6 0.00 0.00 0.00 60 1017.6
20260509051803 85 351 6.1 9.6 0.00 0.00 0.00 60 1017.6
20260509051703 85 350 6.1 9.6 0.00 0.00 0.00 60 1017.7
20260509051603 85 353 6.1 9.6 0.00 0.00 0.00 60 1017.7
20260509051503 85 352 6.1 9.6 0.00 0.00 0.00 60 1017.7
20260509051426 85 351 6.1 9.6 0.00 0.00 0.00 60 1017.6
20260509051303 85 348 7.0 9.6 0.00 0.00 0.00 60 1017.8
20260509051203 85 344 7.0 9.6 0.00 0.00 0.00 60 1017.7
20260509051103 85 339 7.0 9.6 0.00 0.00 0.00 60 1017.8
20260509051003 85 332 6.1 8.7 0.00 0.00 0.00 60 1017.9
20260509050903 85 326 6.1 8.7 0.00 0.00 0.00 60 1017.9
20260509050803 85 328 6.1 8.7 0.00 0.00 0.00 60 1017.9
20260509050703 85 328 6.1 8.7 0.00 0.00 0.00 60 1017.8
20260509050603 85 327 6.1 7.8 0.00 0.00 0.00 60 1017.9
20260509050503 85 328 6.1 7.8 0.00 0.00 0.00 60 1017.9
20260509050403 85 330 6.1 7.8 0.00 0.00 0.00 60 1018.0
20260509050303 85 328 6.1 7.8 0.00 0.00 0.00 60 1018.0
20260509050203 85 332 5.2 7.8 0.00 0.00 0.00 60 1018.0
20260509050124 85 336 5.2 7.8 0.00 0.00 0.00 60 1018.0
20260509050025 85 340 5.2 7.8 0.00 0.00 0.00 60 1018.0
20260509045903 85 347 6.1 8.7 0.00 0.00 0.00 60 1017.9
20260509045824 85 346 6.1 8.7 0.00 0.00 0.00 60 1018.1
20260509045703 85 344 6.1 8.7 0.00 0.00 0.00 60 1018.1
20260509045605 85 341 6.1 8.7 0.00 0.00 0.00 60 1017.9
20260509045503 85 336 6.1 8.7 0.00 0.00 0.00 60 1018.0
20260509045403 85 335 6.1 8.7 0.00 0.00 0.00 60 1018.0
20260509045306 85 338 6.1 8.7 0.00 0.00 0.00 60 1018.1
20260509045203 85 337 6.1 8.7 0.00 0.00 0.00 60 1018.1
20260509045103 85 330 6.1 8.7 0.00 0.00 0.00 60 1018.1
20260509045003 85 329 6.1 11.3 0.00 0.00 0.00 60 1018.3
20260509044903 85 335 6.1 11.3 0.00 0.00 0.00 60 1018.3
20260509044803 85 339 6.1 11.3 0.00 0.00 0.00 60 1018.3
20260509044703 85 345 6.1 11.3 0.00 0.00 0.00 60 1018.1
20260509044603 85 354 6.1 11.3 0.00 0.00 0.00 60 1018.1
20260509044504 85 357 6.1 11.3 0.00 0.00 0.00 60 1018.1
20260509044403 85 3 6.1 11.3 0.00 0.00 0.00 60 1018.1
20260509044303 85 12 6.1 11.3 0.00 0.00 0.00 60 1018.1
20260509044203 85 9 6.1 11.3 0.00 0.00 0.00 60 1018.3
20260509044103 85 13 6.1 11.3 0.00 0.00 0.00 60 1018.3
20260509044003 85 16 6.1 11.3 0.00 0.00 0.00 60 1018.3
20260509043903 85 9 6.1 9.6 0.00 0.00 0.00 60 1018.5
20260509043805 85 5 6.1 9.6 0.00 0.00 0.00 60 1018.3
20260509043703 85 1 6.1 9.6 0.00 0.00 0.00 60 1018.3
20260509043603 85 354 6.1 9.6 0.00 0.00 0.00 60 1018.4
20260509043524 85 353 5.2 9.6 0.00 0.00 0.00 60 1018.4
20260509043425 85 348 5.2 7.8 0.00 0.00 0.00 60 1018.5
20260509043303 85 349 5.2 7.8 0.00 0.00 0.00 60 1018.6
20260509043203 85 354 5.2 7.8 0.00 0.00 0.00 60 1018.6
20260509043103 85 359 5.2 7.8 0.00 0.00 0.00 60 1018.6
20260509043004 85 358 6.1 7.8 0.00 0.00 0.00 60 1018.6
20260509042903 85 356 5.2 7.8 0.00 0.00 0.00 60 1018.6
20260509042803 85 357 5.2 7.8 0.00 0.00 0.00 60 1018.5
20260509042724 85 359 5.2 7.8 0.00 0.00 0.00 60 1018.6
20260509042603 85 355 5.2 7.8 0.00 0.00 0.00 60 1018.6
20260509042504 85 358 4.3 7.8 0.00 0.00 0.00 60 1018.6
20260509042403 85 4 4.3 7.8 0.00 0.00 0.00 60 1018.7
20260509042306 85 357 4.3 7.8 0.00 0.00 0.00 60 1018.6
20260509042205 85 353 4.3 7.8 0.00 0.00 0.00 60 1018.6
20260509042103 85 354 4.3 9.6 0.00 0.00 0.00 60 1018.8
20260509042004 85 353 4.3 9.6 0.00 0.00 0.00 60 1018.7
20260509041903 85 357 4.3 9.6 0.00 0.00 0.00 60 1018.7
20260509041803 85 357 5.2 9.6 0.00 0.00 0.00 60 1018.9
20260509041704 85 354 5.2 9.6 0.00 0.00 0.00 60 1018.9
20260509041603 85 359 5.2 9.6 0.00 0.00 0.00 60 1018.9
20260509041524 85 359 5.2 9.6 0.00 0.00 0.00 60 1018.8
20260509041403 85 359 4.3 9.6 0.00 0.00 0.00 60 1018.9
20260509041303 85 358 4.3 9.6 0.00 0.00 0.00 60 1018.9
20260509041203 85 360 4.3 9.6 0.00 0.00 0.00 60 1018.9
20260509041124 85 359 4.3 7.0 0.00 0.00 0.00 60 1019.0
20260509041004 85 2 4.3 6.1 0.00 0.00 0.00 60 1018.9
20260509040903 85 3 3.5 6.1 0.00 0.00 0.00 60 1018.9
20260509040805 85 5 3.5 6.1 0.00 0.00 0.00 60 1018.8
20260509040703 85 10 3.5 6.1 0.00 0.00 0.00 60 1019.0
20260509040604 85 10 3.5 6.1 0.00 0.00 0.00 60 1019.1
20260509040503 85 9 3.5 6.1 0.00 0.00 0.00 60 1019.1
20260509040404 85 3 3.5 6.1 0.00 0.00 0.00 60 1019.0
20260509040303 85 3 3.5 6.1 0.00 0.00 0.00 60 1018.8
20260509040224 85 5 3.5 6.1 0.00 0.00 0.00 60 1019.0
20260509040004 85 357 3.5 5.2 0.00 0.00 0.00 60 1018.9
20260509035903 85 358 3.5 5.2 0.00 0.00 0.00 60 1019.0
20260509035803 85 2 3.5 6.1 0.00 0.00 0.00 60 1019.0
20260509035703 85 3 3.5 6.1 0.00 0.00 0.00 60 1019.0
20260509035603 85 6 3.5 6.1 0.00 0.00 0.00 60 1019.2
20260509035504 85 11 3.5 6.1 0.00 0.00 0.00 60 1019.0
20260509035403 85 15 2.6 6.1 0.00 0.00 0.00 60 1019.0
20260509035325 85 14 2.6 6.1 0.00 0.00 0.00 60 1019.0
20260509035204 85 17 2.6 6.1 0.00 0.00 0.00 60 1019.2
20260509035124 85 20 2.6 6.1 0.00 0.00 0.00 60 1019.0
20260509035004 85 24 2.6 6.1 0.00 0.00 0.00 60 1019.0
20260509034903 85 27 2.6 6.1 0.00 0.00 0.00 60 1019.0
20260509034825 85 28 3.5 6.1 0.00 0.00 0.00 60 1019.4
20260509034724 85 21 3.5 7.0 0.00 0.00 0.00 60 1019.1
20260509034603 85 15 3.5 7.0 0.00 0.00 0.00 60 1019.1
20260509034503 85 13 3.5 7.0 0.00 0.00 0.00 60 1019.1
20260509034403 85 11 3.5 7.0 0.00 0.00 0.00 60 1019.2
20260509034303 85 13 3.5 7.0 0.00 0.00 0.00 60 1019.4
20260509034203 85 8 3.5 7.0 0.00 0.00 0.00 60 1019.2
20260509034103 85 6 3.5 7.0 0.00 0.00 0.00 60 1019.2
20260509034004 85 360 4.3 7.0 0.00 0.00 0.00 60 1019.4
20260509033903 85 350 4.3 7.0 0.00 0.00 0.00 60 1019.4
20260509033804 85 339 3.5 7.0 0.00 0.00 0.00 60 1019.5
20260509033724 85 339 3.5 7.0 0.00 0.00 0.00 60 1019.2
20260509033603 85 340 3.5 7.0 0.00 0.00 0.00 60 1019.4
20260509033524 85 342 3.5 7.0 0.00 0.00 0.00 60 1019.4
20260509033426 85 342 3.5 7.0 0.00 0.00 0.00 60 1019.4
20260509033303 85 338 3.5 7.0 0.00 0.00 0.00 60 1019.4
20260509033225 85 338 3.5 7.0 0.00 0.00 0.00 60 1019.4
20260509033103 85 346 3.5 7.0 0.00 0.00 0.00 60 1019.2
20260509033003 85 355 3.5 7.0 0.00 0.00 0.00 60 1019.5
20260509032903 85 358 3.5 7.0 0.00 0.00 0.00 60 1019.5
20260509032803 85 9 3.5 7.0 0.00 0.00 0.00 60 1019.5
20260509032703 85 18 4.3 7.0 0.00 0.00 0.00 60 1019.8
20260509032624 85 20 4.3 7.0 0.00 0.00 0.00 60 1019.5
20260509032524 85 23 4.3 7.0 0.00 0.00 0.00 60 1019.6
20260509032403 85 29 3.5 6.1 0.00 0.00 0.00 60 1019.5
20260509032325 85 31 3.5 6.1 0.00 0.00 0.00 60 1019.6
20260509032203 85 27 3.5 6.1 0.00 0.00 0.00 60 1019.4
20260509032103 85 26 4.3 6.1 0.00 0.00 0.00 60 1019.4
20260509032003 85 26 3.5 6.1 0.00 0.00 0.00 60 1019.4
20260509031924 85 30 3.5 6.1 0.00 0.00 0.00 60 1019.5
20260509031803 85 32 3.5 6.1 0.00 0.00 0.00 60 1019.5
20260509031704 85 29 3.5 6.1 0.00 0.00 0.00 60 1019.5
20260509031604 85 25 2.6 5.2 0.00 0.00 0.00 60 1019.5
20260509031503 85 30 2.6 5.2 0.00 0.00 0.00 60 1019.4
20260509031403 85 35 2.6 5.2 0.00 0.00 0.00 60 1019.6
20260509031324 85 38 2.6 5.2 0.00 0.00 0.00 60 1019.6
20260509031203 85 52 2.6 5.2 0.00 0.00 0.00 60 1019.7
20260509031103 85 49 2.6 5.2 0.00 0.00 0.00 60 1019.6
20260509031003 85 40 2.6 5.2 0.00 0.00 0.00 60 1019.7
20260509030903 85 32 2.6 5.2 0.00 0.00 0.00 60 1019.7
20260509030825 85 22 2.6 5.2 0.00 0.00 0.00 60 1019.7
20260509030703 85 20 2.6 5.2 0.00 0.00 0.00 60 1019.7
20260509030625 85 25 2.6 5.2 0.00 0.00 0.00 60 1019.5
20260509030503 85 20 2.6 5.2 0.00 0.00 0.00 60 1019.7
20260509030403 85 16 2.6 5.2 0.00 0.00 0.00 60 1019.6
20260509030303 85 13 2.6 5.2 0.00 0.00 0.00 60 1019.9
20260509030203 85 10 2.6 5.2 0.00 0.00 0.00 60 1019.8
20260509030025 85 13 2.6 5.2 0.00 0.00 0.00 60 1019.7
20260509025903 85 19 2.6 5.2 0.00 0.00 0.00 60 1019.8
20260509025824 85 21 2.6 5.2 0.00 0.00 0.00 60 1019.8
20260509025703 85 24 2.6 5.2 0.00 0.00 0.00 60 1019.7
20260509025604 85 20 2.6 5.2 0.00 0.00 0.00 60 1019.7
20260509025525 85 18 2.6 5.2 0.00 0.00 0.00 60 1019.7
20260509025403 85 15 2.6 3.5 0.00 0.00 0.00 60 1019.8
20260509025306 85 12 2.6 3.5 0.00 0.00 0.00 60 1019.8
20260509025224 85 12 2.6 3.5 0.00 0.00 0.00 60 1019.7
20260509025124 85 18 2.6 3.5 0.00 0.00 0.00 60 1019.8
20260509025003 85 24 2.6 3.5 0.00 0.00 0.00 60 1019.7
20260509024903 85 26 2.6 3.5 0.00 0.00 0.00 60 1019.7
20260509024803 85 32 2.6 3.5 0.00 0.00 0.00 60 1019.9
20260509024704 85 37 2.6 5.2 0.00 0.00 0.00 60 1019.8
20260509024603 85 41 2.6 5.2 0.00 0.00 0.00 60 1019.7
20260509024503 85 43 2.6 5.2 0.00 0.00 0.00 60 1019.7
20260509024404 85 47 2.6 5.2 0.00 0.00 0.00 60 1019.7
20260509024303 85 42 1.7 5.2 0.00 0.00 0.00 60 1019.8
20260509024203 85 37 1.7 5.2 0.00 0.00 0.00 60 1020.0
20260509024103 85 37 2.6 5.2 0.00 0.00 0.00 60 1019.8
20260509024003 85 39 2.6 5.2 0.00 0.00 0.00 60 1019.9
20260509023903 85 38 2.6 5.2 0.00 0.00 0.00 60 1020.0
20260509023803 85 35 1.7 5.2 0.00 0.00 0.00 60 1019.9
20260509023703 85 32 1.7 3.5 0.00 0.00 0.00 60 1020.0
20260509023625 85 30 1.7 3.5 0.00 0.00 0.00 60 1019.9
20260509023503 85 30 1.7 3.5 0.00 0.00 0.00 60 1019.9
20260509023403 85 28 2.6 3.5 0.00 0.00 0.00 60 1019.9
20260509023303 85 35 2.6 5.2 0.00 0.00 0.00 60 1019.9
20260509023224 85 38 2.6 5.2 0.00 0.00 0.00 60 1019.9
20260509023124 85 41 2.6 5.2 0.00 0.00 0.00 60 1020.0
20260509023003 85 39 2.6 5.2 0.00 0.00 0.00 60 1020.0
20260509022903 85 37 2.6 5.2 0.00 0.00 0.00 60 1020.1
20260509022804 85 40 2.6 5.2 0.00 0.00 0.00 60 1020.1
20260509022703 85 40 2.6 5.2 0.00 0.00 0.00 60 1020.0
20260509022603 85 41 3.5 5.2 0.00 0.00 0.00 60 1020.0
20260509022503 85 40 3.5 5.2 0.00 0.00 0.00 60 1020.0
20260509022403 85 41 3.5 5.2 0.00 0.00 0.00 60 1020.0
20260509022306 85 39 3.5 5.2 0.00 0.00 0.00 60 1020.1
20260509022204 85 33 3.5 5.2 0.00 0.00 0.00 60 1020.1
20260509022103 85 26 3.5 5.2 0.00 0.00 0.00 60 1019.9
20260509022003 85 24 3.5 5.2 0.00 0.00 0.00 60 1020.0
20260509021924 85 25 3.5 5.2 0.00 0.00 0.00 60 1020.1
20260509021824 85 25 3.5 5.2 0.00 0.00 0.00 60 1020.0
20260509021703 85 24 3.5 5.2 0.00 0.00 0.00 60 1020.0
20260509021604 85 22 2.6 5.2 0.00 0.00 0.00 60 1020.1
20260509021525 85 21 2.6 5.2 0.00 0.00 0.00 60 1020.1
20260509021424 85 19 2.6 5.2 0.00 0.00 0.00 60 1020.0
20260509021303 85 18 2.6 5.2 0.00 0.00 0.00 60 1020.0
20260509021203 85 16 2.6 5.2 0.00 0.00 0.00 60 1019.9
20260509021103 85 16 2.6 5.2 0.00 0.00 0.00 60 1020.2
20260509021024 85 11 2.6 5.2 0.00 0.00 0.00 60 1020.0
20260509020903 85 1 2.6 5.2 0.00 0.00 0.00 60 1019.9
20260509020804 85 355 2.6 5.2 0.00 0.00 0.00 60 1020.1
20260509020703 85 350 2.6 5.2 0.00 0.00 0.00 60 1020.1
20260509020603 85 347 2.6 5.2 0.00 0.00 0.00 60 1020.0
20260509020524 85 346 2.6 5.2 0.00 0.00 0.00 60 1020.0
20260509020403 85 343 2.6 5.2 0.00 0.00 0.00 60 1020.1
20260509020303 85 338 2.6 5.2 0.00 0.00 0.00 60 1020.0
20260509020203 85 336 2.6 5.2 0.00 0.00 0.00 60 1020.1
20260509020003 85 330 2.6 5.2 0.00 0.00 0.00 60 1020.1
20260509015903 85 333 2.6 3.5 0.00 0.00 0.00 60 1020.1
20260509015805 85 337 1.7 3.5 0.00 0.00 0.00 60 1020.1
20260509015703 85 344 2.6 3.5 0.00 0.00 0.00 60 1020.1
20260509015603 85 348 2.6 3.5 0.00 0.00 0.00 60 1020.1
20260509015503 85 347 2.6 3.5 0.00 0.00 0.00 60 1020.0
20260509015403 85 351 2.6 3.5 0.00 0.00 0.00 60 1020.1
20260509015325 85 355 2.6 3.5 0.00 0.00 0.00 60 1020.1
20260509015203 85 6 1.7 3.5 0.00 0.00 0.00 60 1020.0
20260509015103 85 20 1.7 3.5 0.00 0.00 0.00 60 1020.1
20260509015003 85 38 1.7 3.5 0.00 0.00 0.00 60 1020.1
20260509014903 85 42 1.7 3.5 0.00 0.00 0.00 60 1020.1
20260509014803 85 46 1.7 3.5 0.00 0.00 0.00 60 1020.1
20260509014703 85 49 1.7 2.6 0.00 0.00 0.00 60 1020.1
20260509014603 85 54 1.7 2.6 0.00 0.00 0.00 60 1020.1
20260509014503 85 54 1.7 2.6 0.00 0.00 0.00 60 1020.0
20260509014403 85 55 1.7 2.6 0.00 0.00 0.00 60 1020.1
20260509014303 85 54 1.7 2.6 0.00 0.00 0.00 60 1020.1
20260509014203 85 54 1.7 2.6 0.00 0.00 0.00 60 1020.0
20260509014124 85 55 1.7 2.6 0.00 0.00 0.00 60 1020.1
20260509014005 85 50 1.7 2.6 0.00 0.00 0.00 60 1020.0
20260509013903 85 43 0.9 2.6 0.00 0.00 0.00 60 1020.0
20260509013803 85 39 0.9 2.6 0.00 0.00 0.00 60 1019.9
20260509013703 85 35 0.9 2.6 0.00 0.00 0.00 60 1020.1
20260509013624 85 30 0.9 1.7 0.00 0.00 0.00 60 1020.1
20260509013503 85 28 0.9 1.7 0.00 0.00 0.00 60 1019.9
20260509013403 85 30 0.9 1.7 0.00 0.00 0.00 60 1020.0
20260509013324 85 31 0.9 1.7 0.00 0.00 0.00 60 1020.0
20260509013203 85 31 0.9 1.7 0.00 0.00 0.00 60 1020.1
20260509013103 85 26 0.9 1.7 0.00 0.00 0.00 60 1020.1
20260509013024 85 27 0.9 1.7 0.00 0.00 0.00 60 1019.9
20260509012903 85 32 0.9 1.7 0.00 0.00 0.00 60 1020.0
20260509012803 85 31 0.9 1.7 0.00 0.00 0.00 60 1019.8
20260509012703 85 34 0.9 1.7 0.00 0.00 0.00 60 1020.0
20260509012603 85 35 0.9 1.7 0.00 0.00 0.00 60 1020.1
20260509012524 85 32 0.9 1.7 0.00 0.00 0.00 60 1020.1
20260509012404 85 52 0.9 1.7 0.00 0.00 0.00 60 1020.0
20260509012324 85 56 0.9 1.7 0.00 0.00 0.00 60 1019.8
20260509012203 85 79 0.9 1.7 0.00 0.00 0.00 60 1019.9
20260509012103 85 115 0.9 1.7 0.00 0.00 0.00 60 1019.9
20260509012003 85 127 0.9 1.7 0.00 0.00 0.00 60 1020.0
20260509011904 85 157 0.9 1.7 0.00 0.00 0.00 60 1019.9
20260509011803 85 157 0.9 1.7 0.00 0.00 0.00 60 1019.9
20260509011704 85 165 0.9 1.7 0.00 0.00 0.00 60 1019.9
20260509011603 85 156 0.9 1.7 0.00 0.00 0.00 60 1020.0
20260509011503 85 154 0.9 1.7 0.00 0.00 0.00 60 1019.9
20260509011403 85 140 0.9 1.7 0.00 0.00 0.00 60 1020.0
20260509011303 85 140 0.9 2.6 0.00 0.00 0.00 60 1020.0
20260509011203 85 138 0.9 2.6 0.00 0.00 0.00 60 1019.9
20260509011103 85 147 0.9 2.6 0.00 0.00 0.00 60 1019.8
20260509011004 85 152 1.7 2.6 0.00 0.00 0.00 60 1019.6
20260509010903 85 149 1.7 2.6 0.00 0.00 0.00 60 1019.6
20260509010803 85 127 0.9 2.6 0.00 0.00 0.00 60 1019.8
20260509010704 85 122 1.7 2.6 0.00 0.00 0.00 60 1019.7
20260509010604 85 134 0.9 2.6 0.00 0.00 0.00 60 1019.7
20260509010503 85 116 0.9 2.6 0.00 0.00 0.00 60 1019.7
20260509010403 85 221 0.9 2.6 0.00 0.00 0.00 60 1019.8
20260509010303 85 281 0.9 1.7 0.00 0.00 0.00 60 1019.6
20260509010203 85 264 0.9 1.7 0.00 0.00 0.00 60 1019.8
20260509010103 85 312 0.9 1.7 0.00 0.00 0.00 60 1019.8
20260509010004 85 126 0.9 1.7 0.00 0.00 0.00 60 1019.7
20260509005925 85 106 0.9 1.7 0.00 0.00 0.00 60 1019.7
20260509005824 85 128 0.9 1.7 0.00 0.00 0.00 60 1019.5
20260509005703 85 147 0.9 1.7 0.00 0.00 0.00 60 1019.6
20260509005624 85 155 0.9 1.7 0.00 0.00 0.00 60 1019.6
20260509005503 85 174 0.9 1.7 0.00 0.00 0.00 60 1019.7
20260509005403 85 197 0.9 1.7 0.00 0.00 0.00 60 1019.6
20260509005324 85 202 0.9 1.7 0.00 0.00 0.00 60 1019.8
20260509005224 85 209 0.9 1.7 0.00 0.00 0.00 60 1019.8
20260509005103 85 204 0.9 1.7 0.00 0.00 0.00 60 1019.6
20260509005024 85 223 0.9 1.7 0.00 0.00 0.00 60 1019.8
20260509004903 85 230 0.9 1.7 0.00 0.00 0.00 60 1019.6
20260509004803 85 231 0.9 1.7 0.00 0.00 0.00 60 1019.5
20260509004703 85 232 0.9 1.7 0.00 0.00 0.00 60 1019.7
20260509004603 85 231 0.9 1.7 0.00 0.00 0.00 60 1019.7
20260509004503 85 208 0.9 1.7 0.00 0.00 0.00 60 1019.6
20260509004403 85 182 0.9 1.7 0.00 0.00 0.00 60 1019.6
20260509004303 85 158 0.9 1.7 0.00 0.00 0.00 60 1019.6
20260509004203 85 135 0.9 2.6 0.00 0.00 0.00 60 1019.6
20260509004104 85 128 0.9 2.6 0.00 0.00 0.00 60 1019.6
20260509004003 85 119 0.9 2.6 0.00 0.00 0.00 60 1019.6
20260509003905 85 111 1.7 2.6 0.00 0.00 0.00 60 1019.5
20260509003803 85 106 1.7 2.6 0.00 0.00 0.00 60 1019.7
20260509003703 85 112 1.7 2.6 0.00 0.00 0.00 60 1019.6
20260509003604 85 112 1.7 2.6 0.00 0.00 0.00 60 1019.6
20260509003503 85 108 1.7 2.6 0.00 0.00 0.00 60 1019.5
20260509003403 85 108 1.7 2.6 0.00 0.00 0.00 60 1019.5
20260509003324 85 108 1.7 2.6 0.00 0.00 0.00 60 1019.4
20260509003224 85 106 1.7 2.6 0.00 0.00 0.00 60 1019.6
20260509003103 85 115 2.6 2.6 0.00 0.00 0.00 60 1019.5
20260509003003 85 120 2.6 2.6 0.00 0.00 0.00 60 1019.5
20260509002903 85 122 2.6 2.6 0.00 0.00 0.00 60 1019.5
20260509002803 85 124 2.6 2.6 0.00 0.00 0.00 60 1019.6
20260509002704 85 128 2.6 2.6 0.00 0.00 0.00 60 1019.5
20260509002603 85 133 2.6 2.6 0.00 0.00 0.00 60 1019.5
20260509002524 85 132 2.6 2.6 0.00 0.00 0.00 60 1019.5
20260509002403 85 134 1.7 2.6 0.00 0.00 0.00 60 1019.2
20260509002324 85 134 1.7 2.6 0.00 0.00 0.00 60 1019.4
20260509002204 85 134 1.7 2.6 0.00 0.00 0.00 60 1019.5
20260509002103 85 132 1.7 2.6 0.00 0.00 0.00 60 1019.5
20260509002004 85 128 1.7 2.6 0.00 0.00 0.00 60 1019.4
20260509001903 85 122 0.9 2.6 0.00 0.00 0.00 60 1019.5
20260509001824 85 117 0.9 2.6 0.00 0.00 0.00 60 1019.5
20260509001704 85 88 0.9 1.7 0.00 0.00 0.00 60 1019.2
20260509001624 85 358 0.9 1.7 0.00 0.00 0.00 60 1019.0
20260509001503 85 313 0.9 1.7 0.00 0.00 0.00 60 1019.2
20260509001403 85 295 0.9 1.7 0.00 0.00 0.00 60 1019.1
20260509001303 85 293 0.9 1.7 0.00 0.00 0.00 60 1019.1
20260509001203 85 289 0.9 0.9 0.00 0.00 0.00 60 1019.1
20260509001103 85 288 0.9 0.9 0.00 0.00 0.00 60 1019.1
20260509001003 85 290 0.9 0.9 0.00 0.00 0.00 60 1019.2
20260509000924 85 290 0.9 0.9 0.00 0.00 0.00 60 1019.2
20260509000803 85 291 0.9 0.9 0.00 0.00 0.00 60 1019.1
20260509000724 85 288 0.9 1.7 0.00 0.00 0.00 60 1019.2
20260509000603 85 279 0.9 1.7 0.00 0.00 0.00 60 1018.9
20260509000503 85 277 0.9 1.7 0.00 0.00 0.00 60 1018.9
20260509000425 85 274 0.9 1.7 0.00 0.00 0.00 60 1018.9
20260509000304 85 272 0.9 1.7 0.00 0.00 0.00 60 1019.0
20260509000226 85 268 1.7 2.6 0.00 0.00 0.00 60 1019.0
20260509000126 85 266 1.7 2.6 0.00 0.00 0.00 60 1019.1
20260509000003 85 266 1.7 2.6 0.00 0.00 0.00 60 1018.9
20260508235924 85 267 1.7 2.6 0.00 0.00 0.00 60 1019.0
20260508235803 85 266 1.7 2.6 0.00 0.00 0.00 60 1019.0
20260508235703 85 266 1.7 2.6 0.00 0.00 0.00 60 1019.0
20260508235603 85 268 1.7 2.6 0.00 0.00 0.00 60 1019.0
20260508235503 85 268 1.7 2.6 0.00 0.00 0.00 60 1019.0
20260508235403 85 270 1.7 2.6 0.00 0.00 0.00 60 1019.0
20260508235324 85 270 1.7 2.6 0.00 0.00 0.00 60 1019.0
20260508235203 85 273 1.7 2.6 0.00 0.00 0.00 60 1019.0
20260508235103 85 278 0.9 1.7 0.00 0.00 0.00 60 1018.8
20260508235003 85 280 0.9 1.7 0.00 0.00 0.00 60 1018.9
20260508234903 85 279 0.9 1.7 0.00 0.00 0.00 60 1018.9
20260508234803 85 279 0.9 1.7 0.00 0.00 0.00 60 1018.9
20260508234703 85 275 0.9 1.7 0.00 0.00 0.00 60 1018.8
20260508234603 85 275 0.9 1.7 0.00 0.00 0.00 60 1018.7
20260508234504 85 277 0.9 1.7 0.00 0.00 0.00 60 1018.7
20260508234404 85 276 0.9 1.7 0.00 0.00 0.00 60 1018.7
20260508234303 85 274 0.9 1.7 0.00 0.00 0.00 60 1018.8
20260508234203 85 274 0.9 1.7 0.00 0.00 0.00 60 1018.7
20260508234103 85 272 0.9 1.7 0.00 0.00 0.00 60 1018.6
20260508234024 85 271 0.9 1.7 0.00 0.00 0.00 60 1018.6
20260508233903 85 267 0.9 1.7 0.00 0.00 0.00 60 1018.7
20260508233803 85 264 0.0 1.7 0.00 0.00 0.00 60 1018.6
20260508233703 85 278 0.0 0.9 0.00 0.00 0.00 60 1018.6
20260508233603 85 263 0.0 0.9 0.00 0.00 0.00 60 1018.6
20260508233503 85 0 0.0 0.0 0.00 0.00 0.00 60 1018.6
20260508233424 85 0 0.0 0.0 0.00 0.00 0.00 60 1018.5
20260508233303 85 0 0.0 0.0 0.00 0.00 0.00 60 1018.6
20260508233203 85 0 0.0 0.0 0.00 0.00 0.00 60 1018.6
20260508233103 85 293 0.0 0.9 0.00 0.00 0.00 60 1018.4
20260508233003 85 293 0.0 0.9 0.00 0.00 0.00 60 1018.5
20260508232903 85 293 0.0 0.9 0.00 0.00 0.00 60 1018.5
20260508232803 85 293 0.0 0.9 0.00 0.00 0.00 60 1018.3
20260508232705 85 293 0.0 0.9 0.00 0.00 0.00 60 1018.4
20260508232603 85 293 0.0 0.9 0.00 0.00 0.00 60 1018.4
20260508232503 85 293 0.0 0.9 0.00 0.00 0.00 60 1018.4
20260508232403 85 293 0.0 0.9 0.00 0.00 0.00 60 1018.5
20260508232306 85 293 0.0 0.9 0.00 0.00 0.00 60 1018.4
20260508232203 85 293 0.0 0.9 0.00 0.00 0.00 60 1018.3
20260508232103 85 292 0.0 0.9 0.00 0.00 0.00 60 1018.4
20260508232024 85 292 0.0 0.9 0.00 0.00 0.00 60 1018.3
20260508231903 85 292 0.0 0.9 0.00 0.00 0.00 60 1018.4
20260508231803 85 292 0.0 0.9 0.00 0.00 0.00 60 1018.4
20260508231703 85 292 0.0 0.9 0.00 0.00 0.00 60 1018.4
20260508231603 85 292 0.0 0.9 0.00 0.00 0.00 60 1018.1
20260508231503 85 292 0.0 0.9 0.00 0.00 0.00 60 1018.1
20260508231403 85 292 0.0 0.9 0.00 0.00 0.00 60 1018.0
20260508231303 85 291 0.0 1.7 0.00 0.00 0.00 60 1018.0
20260508231203 85 291 0.0 1.7 0.00 0.00 0.00 60 1018.3
20260508231103 85 290 0.0 1.7 0.00 0.00 0.00 60 1018.3
20260508231003 85 284 0.0 1.7 0.00 0.00 0.00 60 1018.1
20260508230903 85 284 0.0 1.7 0.00 0.00 0.00 60 1018.1
20260508230824 85 284 0.0 1.7 0.00 0.00 0.00 60 1018.3
20260508230703 85 284 0.0 1.7 0.00 0.00 0.00 60 1018.0
20260508230603 85 284 0.0 1.7 0.00 0.00 0.00 60 1018.0
20260508230503 85 286 0.0 1.7 0.00 0.00 0.00 60 1018.0
20260508230403 85 286 0.0 1.7 0.00 0.00 0.00 60 1017.8
20260508230303 85 286 0.0 0.9 0.00 0.00 0.00 60 1017.9
20260508230224 85 286 0.0 0.9 0.00 0.00 0.00 60 1018.1
20260508230103 85 288 0.0 0.9 0.00 0.00 0.00 60 1018.0
20260508230004 85 292 0.0 0.9 0.00 0.00 0.00 60 1018.1
20260508225905 85 291 0.0 0.9 0.00 0.00 0.00 60 1018.1
20260508225824 85 289 0.0 0.9 0.00 0.00 0.00 60 1018.0
20260508225703 85 287 0.9 0.9 0.00 0.00 0.00 60 1018.0
20260508225603 85 287 0.9 0.9 0.00 0.00 0.00 60 1017.9
20260508225503 85 286 0.0 0.9 0.00 0.00 0.00 60 1017.8
20260508225403 85 286 0.0 0.9 0.00 0.00 0.00 60 1018.1
20260508225324 85 285 0.0 0.9 0.00 0.00 0.00 60 1018.1
20260508225203 85 283 0.0 0.9 0.00 0.00 0.00 60 1018.1
20260508225104 85 281 0.0 0.9 0.00 0.00 0.00 60 1017.9
20260508225003 85 279 0.0 0.9 0.00 0.00 0.00 60 1017.9
20260508224903 85 281 0.0 0.9 0.00 0.00 0.00 60 1017.9
20260508224803 85 284 0.0 0.9 0.00 0.00 0.00 60 1017.8
20260508224703 85 293 0.0 0.9 0.00 0.00 0.00 60 1017.8
20260508224603 85 289 0.0 0.9 0.00 0.00 0.00 60 1017.9
20260508224503 85 288 0.0 0.9 0.00 0.00 0.00 60 1017.9
20260508224425 85 285 0.0 0.9 0.00 0.00 0.00 60 1017.8
20260508224303 85 280 0.9 1.7 0.00 0.00 0.00 60 1017.8
20260508224204 85 279 0.9 1.7 0.00 0.00 0.00 60 1017.8
20260508224103 85 279 0.9 1.7 0.00 0.00 0.00 60 1017.7
20260508224003 85 280 0.9 1.7 0.00 0.00 0.00 60 1017.8
20260508223903 85 280 0.9 1.7 0.00 0.00 0.00 60 1017.7
20260508223803 85 280 0.9 1.7 0.00 0.00 0.00 60 1017.8
20260508223703 85 279 0.9 1.7 0.00 0.00 0.00 60 1017.6
20260508223625 85 279 0.9 1.7 0.00 0.00 0.00 60 1017.6
20260508223524 85 279 0.9 1.7 0.00 0.00 0.00 60 1017.7
20260508223403 85 278 0.9 1.7 0.00 0.00 0.00 60 1017.5
20260508223303 85 281 0.9 1.7 0.00 0.00 0.00 60 1017.6
20260508223203 85 282 0.9 1.7 0.00 0.00 0.00 60 1017.6
20260508223103 85 283 0.9 0.9 0.00 0.00 0.00 60 1017.6
20260508223003 85 281 0.0 0.9 0.00 0.00 0.00 60 1017.7
20260508222924 85 279 0.0 0.9 0.00 0.00 0.00 60 1017.7
20260508222803 85 279 0.0 0.9 0.00 0.00 0.00 60 1017.7
20260508222703 85 281 0.0 0.9 0.00 0.00 0.00 60 1017.5
20260508222604 85 282 0.0 0.9 0.00 0.00 0.00 60 1017.6
20260508222503 85 282 0.0 0.9 0.00 0.00 0.00 60 1017.6
20260508222403 85 287 0.0 0.9 0.00 0.00 0.00 60 1017.4
20260508222306 85 287 0.0 0.9 0.00 0.00 0.00 60 1017.5
20260508222203 85 292 0.0 0.9 0.00 0.00 0.00 60 1017.5
20260508222104 85 290 0.0 0.9 0.00 0.00 0.00 60 1017.5
20260508222003 85 291 0.0 0.9 0.00 0.00 0.00 60 1017.3
20260508221924 85 291 0.0 0.9 0.00 0.00 0.00 60 1017.4
20260508221803 85 291 0.9 0.9 0.00 0.00 0.00 60 1017.4
20260508221703 85 291 0.9 0.9 0.00 0.00 0.00 60 1017.4
20260508221624 85 291 0.9 0.9 0.00 0.00 0.00 60 1017.5
20260508221525 85 291 0.9 0.9 0.00 0.00 0.00 60 1017.3
20260508221403 85 291 0.9 0.9 0.00 0.00 0.00 60 1017.3
20260508221324 85 291 0.9 0.9 0.00 0.00 0.00 60 1017.3
20260508221203 85 291 0.9 0.9 0.00 0.00 0.00 60 1017.4
20260508221124 85 292 0.9 0.9 0.00 0.00 0.00 60 1017.5
20260508221003 85 293 0.9 0.9 0.00 0.00 0.00 60 1017.4
20260508220904 85 293 0.9 0.9 0.00 0.00 0.00 60 1017.4
20260508220824 85 293 0.9 0.9 0.00 0.00 0.00 60 1017.5
20260508220724 85 293 0.0 0.9 0.00 0.00 0.00 60 1017.5
20260508220604 85 276 0.0 0.9 0.00 0.00 0.00 60 1017.4
20260508220505 85 269 0.0 0.9 0.00 0.00 0.00 60 1017.4
20260508220404 85 257 0.9 0.9 0.00 0.00 0.00 60 1017.4
20260508220303 85 255 0.9 0.9 0.00 0.00 0.00 60 1017.4
20260508220204 85 251 0.0 0.9 0.00 0.00 0.00 60 1017.3
20260508220104 85 239 0.0 0.9 0.00 0.00 0.00 60 1017.3
20260508220004 85 232 0.0 0.9 0.00 0.00 0.00 60 1017.4
20260508215903 85 238 0.0 0.9 0.00 0.00 0.00 60 1017.3
20260508215803 85 243 0.0 0.9 0.00 0.00 0.00 60 1017.2
20260508215725 85 243 0.0 0.9 0.00 0.00 0.00 60 1017.2
20260508215603 85 250 0.0 0.9 0.00 0.00 0.00 60 1017.1
20260508215503 85 260 0.0 0.9 0.00 0.00 0.00 60 1017.1
20260508215404 85 288 0.0 0.9 0.00 0.00 0.00 60 1017.2
20260508215306 85 291 0.0 0.9 0.00 0.00 0.00 60 1017.2
20260508215203 85 292 0.0 0.9 0.00 0.00 0.00 60 1017.3
20260508215103 85 300 0.0 0.9 0.00 0.00 0.00 60 1017.1
20260508215003 85 300 0.0 0.9 0.00 0.00 0.00 60 1016.9
20260508214904 85 300 0.0 0.9 0.00 0.00 0.00 60 1016.9
20260508214803 85 307 0.0 0.9 0.00 0.00 0.00 60 1017.1
20260508214703 85 307 0.0 0.9 0.00 0.00 0.00 60 1017.1
20260508214603 85 307 0.0 0.9 0.00 0.00 0.00 60 1017.0
20260508214503 85 307 0.0 0.9 0.00 0.00 0.00 60 1017.0
20260508214403 85 314 0.0 0.9 0.00 0.00 0.00 60 1017.1
20260508214304 85 318 0.0 0.9 0.00 0.00 0.00 60 1017.2
20260508214225 85 318 0.0 0.9 0.00 0.00 0.00 60 1016.9
20260508214103 85 0 0.0 0.0 0.00 0.00 0.00 60 1017.0
20260508214024 85 0 0.0 0.0 0.00 0.00 0.00 60 1017.1
20260508213903 85 32 0.0 0.9 0.00 0.00 0.00 60 1017.1
20260508213804 85 32 0.0 0.9 0.00 0.00 0.00 60 1017.1
20260508213703 85 32 0.0 0.9 0.00 0.00 0.00 60 1017.1
20260508213604 85 32 0.0 0.9 0.00 0.00 0.00 60 1017.1
20260508213504 85 32 0.0 0.9 0.00 0.00 0.00 60 1016.9
20260508213424 85 32 0.0 0.9 0.00 0.00 0.00 60 1017.2
20260508213304 85 34 0.0 0.9 0.00 0.00 0.00 60 1017.1
20260508213203 85 34 0.0 0.9 0.00 0.00 0.00 60 1017.0
20260508213103 85 34 0.0 0.9 0.00 0.00 0.00 60 1016.9
20260508213003 85 35 0.0 0.9 0.00 0.00 0.00 60 1017.0
20260508212925 85 35 0.0 0.9 0.00 0.00 0.00 60 1017.0
20260508212803 85 34 0.9 0.9 0.00 0.00 0.00 60 1017.0
20260508212703 85 33 0.9 0.9 0.00 0.00 0.00 60 1017.1
20260508212603 85 30 0.9 0.9 0.00 0.00 0.00 60 1017.0
20260508212504 85 30 0.9 0.9 0.00 0.00 0.00 60 1017.0
20260508212404 85 30 0.9 0.9 0.00 0.00 0.00 60 1017.1
20260508212306 85 29 0.9 0.9 0.00 0.00 0.00 60 1016.9
20260508212203 85 21 0.0 0.9 0.00 0.00 0.00 60 1017.0
20260508212104 85 9 0.9 0.9 0.00 0.00 0.00 60 1017.0
20260508212003 85 344 0.9 0.9 0.00 0.00 0.00 60 1017.0
20260508211925 85 326 0.9 0.9 0.00 0.00 0.00 60 1017.1
20260508211826 85 308 0.0 0.9 0.00 0.00 0.00 60 1017.1
20260508211724 85 308 0.0 0.9 0.00 0.00 0.00 60 1016.9
20260508211603 85 288 0.0 0.9 0.00 0.00 0.00 60 1016.7
20260508211525 85 289 0.0 0.9 0.00 0.00 0.00 60 1016.9
20260508211403 85 290 0.0 0.9 0.00 0.00 0.00 60 1016.9
20260508211303 85 290 0.0 0.9 0.00 0.00 0.00 60 1016.9
20260508211203 85 290 0.0 0.9 0.00 0.00 0.00 60 1017.0
20260508211124 85 291 0.0 0.9 0.00 0.00 0.00 60 1017.0
20260508211003 85 293 0.0 0.9 0.00 0.00 0.00 60 1016.9
20260508210904 85 293 0.0 0.9 0.00 0.00 0.00 60 1016.9
20260508210803 85 293 0.0 0.9 0.00 0.00 0.00 60 1016.9
20260508210704 85 292 0.0 0.9 0.00 0.00 0.00 60 1017.0
20260508210604 85 292 0.0 0.9 0.00 0.00 0.00 60 1017.0
20260508210503 85 292 0.0 0.9 0.00 0.00 0.00 60 1017.0
20260508210403 85 291 0.0 0.9 0.00 0.00 0.00 60 1016.6
20260508210324 85 291 0.9 0.9 0.00 0.00 0.00 60 1017.0
20260508210204 85 290 0.9 0.9 0.00 0.00 0.00 60 1016.9
20260508210103 85 291 0.9 0.9 0.00 0.00 0.00 60 1016.9
20260508210004 85 292 0.9 0.9 0.00 0.00 0.00 60 1016.9
20260508205926 85 292 0.9 0.9 0.00 0.00 0.00 60 1016.9
20260508205803 85 292 0.9 0.9 0.00 0.00 0.00 60 1017.1
20260508205703 85 292 0.9 0.9 0.00 0.00 0.00 60 1017.1
20260508205603 85 288 0.9 1.7 0.00 0.00 0.00 60 1016.9
20260508205503 85 283 0.9 1.7 0.00 0.00 0.00 60 1016.9
20260508205403 85 281 0.9 1.7 0.00 0.00 0.00 60 1017.0
20260508205306 85 281 0.9 1.7 0.00 0.00 0.00 60 1017.0
20260508205203 85 281 0.9 1.7 0.00 0.00 0.00 60 1017.0
20260508205104 85 280 0.9 1.7 0.00 0.00 0.00 60 1016.9
20260508205024 85 280 0.9 1.7 0.00 0.00 0.00 60 1016.9
20260508204904 85 281 1.7 1.7 0.00 0.00 0.00 60 1016.7
20260508204803 85 282 1.7 1.7 0.00 0.00 0.00 60 1017.1
20260508204724 85 281 0.9 1.7 0.00 0.00 0.00 60 1016.9
20260508204603 85 283 0.9 1.7 0.00 0.00 0.00 60 1017.0
20260508204503 85 285 0.9 1.7 0.00 0.00 0.00 60 1017.0
20260508204403 85 290 0.9 1.7 0.00 0.00 0.00 60 1017.1
20260508204305 85 293 0.9 1.7 0.00 0.00 0.00 60 1016.9
20260508204224 85 295 0.9 1.7 0.00 0.00 0.00 60 1016.9
20260508204124 85 296 0.0 1.7 0.00 0.00 0.00 60 1016.9
20260508204003 85 298 0.0 1.7 0.00 0.00 0.00 60 1017.1
20260508203925 85 302 0.0 1.7 0.00 0.00 0.00 60 1017.0
20260508203803 85 0 0.0 0.0 0.00 0.00 0.00 60 1017.0
20260508203704 85 0 0.0 0.0 0.00 0.00 0.00 60 1017.0
20260508203604 85 0 0.0 0.0 0.00 0.00 0.00 60 1016.9
20260508203503 85 298 0.0 0.9 0.00 0.00 0.00 60 1017.0
20260508203403 85 298 0.0 0.9 0.00 0.00 0.00 60 1017.0
20260508203303 85 298 0.0 0.9 0.00 0.00 0.00 60 1017.0
20260508203203 85 297 0.0 0.9 0.00 0.00 0.00 60 1017.0
20260508203103 85 298 0.0 0.9 0.00 0.00 0.00 60 1016.9
20260508203003 85 298 0.0 0.9 0.00 0.00 0.00 60 1017.1
20260508202903 85 296 0.0 0.9 0.00 0.00 0.00 60 1017.1
20260508202824 85 297 0.0 0.9 0.00 0.00 0.00 60 1017.0
20260508202724 85 297 0.0 0.9 0.00 0.00 0.00 60 1017.0
20260508202604 85 297 0.9 0.9 0.00 0.00 0.00 60 1016.9
20260508202503 85 297 0.9 0.9 0.00 0.00 0.00 60 1016.9
20260508202403 85 297 0.0 0.9 0.00 0.00 0.00 60 1017.1
20260508202306 85 297 0.0 0.9 0.00 0.00 0.00 60 1016.7
20260508202204 85 297 0.0 0.9 0.00 0.00 0.00 60 1017.0
20260508202103 85 297 0.0 0.9 0.00 0.00 0.00 60 1017.0
20260508202004 85 297 0.0 0.9 0.00 0.00 0.00 60 1017.0
20260508201903 85 300 0.0 0.9 0.00 0.00 0.00 60 1017.1
20260508201824 85 301 0.0 0.9 0.00 0.00 0.00 60 1016.9
20260508201703 85 302 0.0 0.9 0.00 0.00 0.00 60 1017.1
20260508201603 85 302 0.0 0.9 0.00 0.00 0.00 60 1017.0
20260508201503 85 302 0.0 0.9 0.00 0.00 0.00 60 1017.0
20260508201403 85 301 0.0 0.9 0.00 0.00 0.00 60 1016.9
20260508201303 85 301 0.0 0.9 0.00 0.00 0.00 60 1016.7
20260508201203 85 302 0.9 0.9 0.00 0.00 0.00 60 1016.9
20260508201104 85 307 0.9 1.7 0.00 0.00 0.00 60 1017.0
20260508201003 85 307 0.9 1.7 0.00 0.00 0.00 60 1016.6
20260508200903 85 304 0.9 1.7 0.00 0.00 0.00 60 1016.7
20260508200803 85 302 0.9 1.7 0.00 0.00 0.00 60 1016.9
20260508200724 85 300 0.9 1.7 0.00 0.00 0.00 60 1016.9
20260508200603 85 301 0.9 1.7 0.00 0.00 0.00 60 1016.9
20260508200525 85 303 0.9 1.7 0.00 0.00 0.00 60 1016.9
20260508200403 85 306 0.9 1.7 0.00 0.00 0.00 60 1016.9
20260508200305 85 310 0.9 1.7 0.00 0.00 0.00 60 1016.7
20260508200203 85 312 0.9 1.7 0.00 0.00 0.00 60 1016.9
20260508200103 85 315 0.9 1.7 0.00 0.00 0.00 60 1016.9
20260508200004 85 318 0.9 1.7 0.00 0.00 0.00 60 1016.9
20260508195903 85 328 0.9 1.7 0.00 0.00 0.00 60 1017.0
20260508195824 85 345 0.9 0.9 0.00 0.00 0.00 60 1016.7
20260508195703 85 360 0.9 0.9 0.00 0.00 0.00 60 1017.0
20260508195624 85 357 0.0 0.9 0.00 0.00 0.00 60 1016.9
20260508195503 85 350 0.9 0.9 0.00 0.00 0.00 60 1016.7
20260508195403 85 350 0.9 0.9 0.00 0.00 0.00 60 1016.9
20260508195306 85 355 0.9 1.7 0.00 0.00 0.00 60 1016.9
20260508195224 85 357 0.9 1.7 0.00 0.00 0.00 60 1016.9
20260508195104 85 5 0.9 1.7 0.00 0.00 0.00 60 1017.0
20260508195003 85 8 0.9 1.7 0.00 0.00 0.00 60 1017.1
20260508194904 85 8 0.9 1.7 0.00 0.00 0.00 60 1017.1
20260508194803 85 8 0.9 1.7 0.00 0.00 0.00 60 1017.1
20260508194703 85 8 0.0 1.7 0.00 0.00 0.00 60 1017.0
20260508194624 85 8 0.0 1.7 0.00 0.00 0.00 60 1017.1
20260508194503 85 14 0.0 1.7 0.00 0.00 0.00 60 1017.1
20260508194426 85 16 0.0 1.7 0.00 0.00 0.00 60 1017.1
20260508194303 85 352 0.0 0.9 0.00 0.00 0.00 60 1017.2
20260508194203 85 317 0.0 0.9 0.00 0.00 0.00 60 1017.1
20260508194103 85 317 0.0 0.9 0.00 0.00 0.00 60 1017.1
20260508194003 85 317 0.0 0.9 0.00 0.00 0.00 60 1016.9
20260508193903 85 317 0.9 0.9 0.00 0.00 0.00 60 1017.2
20260508193824 85 317 0.9 0.9 0.00 0.00 0.00 60 1017.2
20260508193703 85 317 0.9 0.9 0.00 0.00 0.00 60 1017.1
20260508193624 85 317 0.9 0.9 0.00 0.00 0.00 60 1017.2
20260508193503 85 317 0.9 0.9 0.00 0.00 0.00 60 1017.2
20260508193424 85 317 0.9 0.9 0.00 0.00 0.00 60 1017.1
20260508193303 85 318 0.9 0.9 0.00 0.00 0.00 60 1017.3
20260508193224 85 318 0.9 0.9 0.00 0.00 0.00 60 1017.2
20260508193103 85 318 0.9 0.9 0.00 0.00 0.00 60 1017.2
20260508193003 85 318 0.9 0.9 0.00 0.00 0.00 60 1017.1
20260508192903 85 318 0.9 0.9 0.00 0.00 0.00 60 1017.1
20260508192803 85 319 0.0 0.9 0.00 0.00 0.00 60 1017.3
20260508192724 85 319 0.0 0.9 0.00 0.00 0.00 60 1017.2
20260508192603 85 334 0.0 0.9 0.00 0.00 0.00 60 1017.2
20260508192526 85 340 0.0 0.9 0.00 0.00 0.00 60 1017.2
20260508192403 85 8 0.0 0.9 0.00 0.00 0.00 60 1017.3
20260508192324 85 124 0.0 1.7 0.00 0.00 0.00 60 1017.1
20260508192203 85 168 0.9 1.7 0.00 0.00 0.00 60 1017.3
20260508192104 85 171 0.9 1.7 0.00 0.00 0.00 60 1017.3
20260508192003 85 140 0.9 1.7 0.00 0.00 0.00 60 1017.3
20260508191903 85 129 0.9 1.7 0.00 0.00 0.00 60 1017.4
20260508191804 85 138 0.9 1.7 0.00 0.00 0.00 60 1017.3
20260508191704 85 152 0.9 1.7 0.00 0.00 0.00 60 1017.3
20260508191624 85 171 0.9 2.6 0.00 0.00 0.00 60 1017.3
20260508191503 85 201 1.7 2.6 0.00 0.00 0.00 60 1017.3
20260508191424 85 206 1.7 2.6 0.00 0.00 0.00 60 1017.3
20260508191325 85 208 1.7 2.6 0.00 0.00 0.00 60 1017.3
20260508191203 85 216 1.7 2.6 0.00 0.00 0.00 60 1017.4
20260508191103 85 215 1.7 2.6 0.00 0.00 0.00 60 1017.3
20260508191003 85 224 1.7 2.6 0.00 0.00 0.00 60 1017.2
20260508190905 85 221 1.7 2.6 0.00 0.00 0.00 60 1017.2
20260508190803 85 219 1.7 2.6 0.00 0.00 0.00 60 1017.3
20260508190703 85 223 1.7 2.6 0.00 0.00 0.00 60 1017.2
20260508190603 85 224 1.7 2.6 0.00 0.00 0.00 60 1017.4
20260508190504 85 217 1.7 2.6 0.00 0.00 0.00 60 1017.4
20260508190403 85 202 1.7 3.5 0.00 0.00 0.00 60 1017.3
20260508190324 85 191 2.6 5.2 0.00 0.00 0.00 60 1017.3
20260508190203 85 178 2.6 5.2 0.00 0.00 0.00 60 1017.4
20260508190103 85 174 2.6 5.2 0.00 0.00 0.00 60 1017.4
20260508190003 85 173 2.6 5.2 0.00 0.00 0.00 60 1017.2
20260508185903 85 173 3.5 5.2 0.00 0.00 0.00 60 1017.2
20260508185803 85 169 3.5 5.2 0.00 0.00 0.00 60 1017.4
20260508185703 85 167 3.5 5.2 0.00 0.00 0.00 60 1017.3
20260508185603 85 170 3.5 5.2 0.00 0.00 0.00 60 1017.3
20260508185503 85 172 3.5 5.2 0.00 0.00 0.00 60 1017.4
20260508185424 85 173 3.5 5.2 0.00 0.00 0.00 60 1017.3
20260508185306 85 181 3.5 5.2 0.00 0.00 0.00 60 1017.3
20260508185203 85 184 3.5 5.2 0.00 0.00 0.00 60 1017.2
20260508185103 85 191 3.5 5.2 0.00 0.00 0.00 60 1017.4
20260508185003 85 193 2.6 5.2 0.00 0.00 0.00 60 1017.3
20260508184903 85 195 2.6 5.2 0.00 0.00 0.00 60 1017.3
20260508184803 85 197 2.6 5.2 0.00 0.00 0.00 60 1017.4
20260508184703 85 203 2.6 5.2 0.00 0.00 0.00 60 1017.4
20260508184604 85 199 2.6 3.5 0.00 0.00 0.00 60 1017.4
20260508184504 85 200 2.6 2.6 0.00 0.00 0.00 60 1017.4
20260508184404 85 201 2.6 2.6 0.00 0.00 0.00 60 1017.4
20260508184303 85 199 2.6 3.5 0.00 0.00 0.00 60 1017.4
20260508184203 85 199 2.6 3.5 0.00 0.00 0.00 60 1017.4
20260508184103 85 198 2.6 3.5 0.00 0.00 0.00 60 1017.4
20260508184003 85 197 2.6 3.5 0.00 0.00 0.00 60 1017.4
20260508183903 85 198 2.6 3.5 0.00 0.00 0.00 60 1017.4
20260508183803 85 202 2.6 3.5 0.00 0.00 0.00 60 1017.5
20260508183724 85 202 2.6 3.5 0.00 0.00 0.00 60 1017.5
20260508183603 85 208 2.6 3.5 0.00 0.00 0.00 60 1017.5
20260508183504 85 210 2.6 3.5 0.00 0.00 0.00 60 1017.3
20260508183403 85 209 1.7 3.5 0.00 0.00 0.00 60 1017.5
20260508183303 85 214 1.7 2.6 0.00 0.00 0.00 60 1017.6
20260508183205 85 216 1.7 2.6 0.00 0.00 0.00 60 1017.5
20260508183103 85 211 1.7 2.6 0.00 0.00 0.00 60 1017.5
20260508183003 85 206 1.7 2.6 0.00 0.00 0.00 60 1017.4
20260508182903 85 209 1.7 2.6 0.00 0.00 0.00 60 1017.4
20260508182803 85 206 1.7 2.6 0.00 0.00 0.00 60 1017.4
20260508182703 85 199 1.7 3.5 0.00 0.00 0.00 60 1017.3
20260508182603 85 187 1.7 3.5 0.00 0.00 0.00 60 1017.5
20260508182503 85 183 2.6 3.5 0.00 0.00 0.00 60 1017.5
20260508182403 85 178 2.6 5.2 0.00 0.00 0.00 60 1017.4
20260508182324 85 174 2.6 5.2 0.00 0.00 0.00 60 1017.4
20260508182203 85 169 2.6 5.2 0.00 0.00 0.00 60 1017.5
20260508182103 85 167 2.6 5.2 0.00 0.00 0.00 60 1017.5
20260508182004 85 167 2.6 5.2 0.00 0.00 0.00 60 1017.4
20260508181903 85 166 3.5 5.2 0.00 0.00 0.00 60 1017.3
20260508181804 85 163 3.5 5.2 0.00 0.00 0.00 60 1017.4
20260508181703 85 162 2.6 5.2 0.00 0.00 0.00 60 1017.4
20260508181603 85 162 2.6 5.2 0.00 0.00 0.00 60 1017.4
20260508181524 85 163 2.6 5.2 0.00 0.00 0.00 60 1017.4
20260508181403 85 166 2.6 5.2 0.00 0.00 0.00 60 1017.3
20260508181304 85 163 1.7 3.5 0.00 0.00 0.00 60 1017.5
20260508181203 85 165 2.6 3.5 0.00 0.00 0.00 60 1017.5
20260508181124 85 168 1.7 3.5 0.00 0.00 0.00 60 1017.5
20260508181003 85 178 1.7 3.5 0.00 0.00 0.00 60 1017.4
20260508180903 85 171 1.7 3.5 0.00 0.00 0.00 60 1017.4
20260508180803 85 172 1.7 3.5 0.00 0.00 0.00 60 1017.6
20260508180724 85 170 2.6 3.5 0.00 0.00 0.00 60 1017.5
20260508180603 85 169 1.7 3.5 0.00 0.00 0.00 60 1017.5
20260508180503 85 168 1.7 3.5 0.00 0.00 0.00 60 1017.5
20260508180424 85 166 1.7 3.5 0.00 0.00 0.00 60 1017.6
20260508180303 85 172 1.7 3.5 0.00 0.00 0.00 60 1017.6
20260508180224 85 176 1.7 3.5 0.00 0.00 0.00 60 1017.5
20260508180103 85 179 1.7 3.5 0.00 0.00 0.00 60 1017.6
20260508180003 85 181 1.7 3.5 0.00 0.00 0.00 60 1017.6
20260508175903 85 191 1.7 3.5 0.00 0.00 0.00 60 1017.6
20260508175803 85 199 1.7 3.5 0.00 0.00 0.00 60 1017.6
20260508175706 85 206 1.7 3.5 0.00 0.00 0.00 60 1017.6
20260508175603 85 209 1.7 3.5 0.00 0.00 0.00 60 1017.5
20260508175503 85 208 1.7 3.5 0.00 0.00 0.00 60 1017.5
20260508175403 85 207 1.7 3.5 0.00 0.00 0.00 60 1017.6
20260508175306 85 203 1.7 3.5 0.00 0.00 0.00 60 1017.6
20260508175203 85 201 2.6 3.5 0.00 0.00 0.00 60 1017.4
20260508175103 85 201 2.6 3.5 0.00 0.00 0.00 60 1017.5
20260508175004 85 199 2.6 3.5 0.00 0.00 0.00 60 1017.6
20260508174924 85 199 2.6 3.5 0.00 0.00 0.00 60 1017.6
20260508174803 85 199 2.6 3.5 0.00 0.00 0.00 60 1017.5
20260508174703 85 195 2.6 3.5 0.00 0.00 0.00 60 1017.5
20260508174603 85 191 2.6 3.5 0.00 0.00 0.00 60 1017.5
20260508174503 85 189 2.6 3.5 0.00 0.00 0.00 60 1017.5
20260508174403 85 182 2.6 3.5 0.00 0.00 0.00 60 1017.5
20260508174324 85 185 2.6 3.5 0.00 0.00 0.00 60 1017.3
20260508174203 85 180 1.7 3.5 0.00 0.00 0.00 60 1017.4
20260508174124 85 178 1.7 3.5 0.00 0.00 0.00 60 1017.4
20260508174003 85 169 1.7 3.5 0.00 0.00 0.00 60 1017.5
20260508173903 85 165 1.7 3.5 0.00 0.00 0.00 60 1017.4
20260508173824 85 164 1.7 3.5 0.00 0.00 0.00 60 1017.4
20260508173705 85 158 0.9 3.5 0.00 0.00 0.00 60 1017.5
20260508173603 85 157 0.9 1.7 0.00 0.00 0.00 60 1017.6
20260508173503 85 168 0.9 1.7 0.00 0.00 0.00 60 1017.5
20260508173403 85 200 0.9 1.7 0.00 0.00 0.00 60 1017.6
20260508173303 85 230 0.9 1.7 0.00 0.00 0.00 60 1017.5
20260508173203 85 252 0.9 1.7 0.00 0.00 0.00 60 1017.4
20260508173103 85 264 0.9 1.7 0.00 0.00 0.00 60 1017.5
20260508173003 85 263 0.9 1.7 0.00 0.00 0.00 60 1017.7
20260508172903 85 254 0.9 1.7 0.00 0.00 0.00 60 1017.7
20260508172803 85 261 0.9 1.7 0.00 0.00 0.00 60 1017.5
20260508172724 85 257 0.9 1.7 0.00 0.00 0.00 60 1017.6
20260508172603 85 252 0.9 2.6 0.00 0.00 0.00 60 1017.6
20260508172504 85 249 0.9 2.6 0.00 0.00 0.00 60 1017.6
20260508172424 85 247 0.9 2.6 0.00 0.00 0.00 60 1017.6
20260508172307 85 246 0.9 2.6 0.00 0.00 0.00 60 1017.5
20260508172203 85 248 0.9 2.6 0.00 0.00 0.00 60 1017.6
20260508172124 85 249 0.9 2.6 0.00 0.00 0.00 60 1017.6
20260508172003 85 251 0.9 2.6 0.00 0.00 0.00 60 1017.5
20260508171903 85 254 0.9 2.6 0.00 0.00 0.00 60 1017.7
20260508171805 85 249 1.7 3.5 0.00 0.00 0.00 60 1017.6
20260508171703 85 246 1.7 3.5 0.00 0.00 0.00 60 1017.6
20260508171603 85 236 1.7 3.5 0.00 0.00 0.00 60 1017.4
20260508171503 85 230 1.7 3.5 0.00 0.00 0.00 60 1017.6
20260508171403 85 229 1.7 3.5 0.00 0.00 0.00 60 1017.6
20260508171303 85 227 1.7 3.5 0.00 0.00 0.00 60 1017.6
20260508171203 85 221 1.7 3.5 0.00 0.00 0.00 60 1017.6
20260508171103 85 217 1.7 3.5 0.00 0.00 0.00 60 1017.7
20260508171003 85 213 1.7 3.5 0.00 0.00 0.00 60 1017.6
20260508170903 85 211 1.7 3.5 0.00 0.00 0.00 60 1017.6
20260508170803 85 207 1.7 3.5 0.00 0.00 0.00 60 1017.7
20260508170703 85 206 1.7 2.6 0.00 0.00 0.00 60 1017.8
20260508170603 85 210 0.9 2.6 0.00 0.00 0.00 60 1017.7
20260508170503 85 211 0.9 1.7 0.00 0.00 0.00 60 1017.7
20260508170403 85 209 0.9 1.7 0.00 0.00 0.00 60 1017.5
20260508170303 85 206 0.9 1.7 0.00 0.00 0.00 60 1017.6
20260508170203 85 212 0.9 1.7 0.00 0.00 0.00 60 1017.6
20260508170104 85 212 0.9 1.7 0.00 0.00 0.00 60 1017.6
20260508170003 85 212 0.9 1.7 0.00 0.00 0.00 60 1017.4
20260508165924 85 212 0.9 1.7 0.00 0.00 0.00 60 1017.6
20260508165804 85 212 0.0 0.9 0.00 0.00 0.00 60 1017.6
20260508165703 85 211 0.0 0.9 0.00 0.00 0.00 60 1017.6
20260508165603 85 211 0.9 0.9 0.00 0.00 0.00 60 1017.7
20260508165524 85 210 0.9 0.9 0.00 0.00 0.00 60 1017.7
20260508165403 85 211 0.9 1.7 0.00 0.00 0.00 60 1017.7
20260508165306 85 211 0.9 1.7 0.00 0.00 0.00 60 1017.7
20260508165203 85 210 0.9 1.7 0.00 0.00 0.00 60 1017.6
20260508165103 85 216 0.9 1.7 0.00 0.00 0.00 60 1017.6
20260508165004 85 218 0.9 1.7 0.00 0.00 0.00 60 1017.7
20260508164903 85 223 0.9 1.7 0.00 0.00 0.00 60 1017.7
20260508164803 85 231 0.9 1.7 0.00 0.00 0.00 60 1017.7
20260508164703 85 242 0.9 1.7 0.00 0.00 0.00 60 1017.8
20260508164603 85 248 0.9 2.6 0.00 0.00 0.00 60 1017.7
20260508164504 85 251 0.9 2.6 0.00 0.00 0.00 60 1017.7
20260508164403 85 257 1.7 2.6 0.00 0.00 0.00 60 1017.7
20260508164303 85 259 1.7 2.6 0.00 0.00 0.00 60 1017.7
20260508164204 85 265 1.7 2.6 0.00 0.00 0.00 60 1017.8
20260508164124 85 265 1.7 2.6 0.00 0.00 0.00 60 1017.8
20260508164024 85 265 1.7 2.6 0.00 0.00 0.00 60 1017.7
20260508163903 85 264 1.7 2.6 0.00 0.00 0.00 60 1017.8
20260508163803 85 264 1.7 2.6 0.00 0.00 0.00 60 1017.9
20260508163703 85 263 1.7 2.6 0.00 0.00 0.00 60 1017.9
20260508163624 85 260 2.6 2.6 0.00 0.00 0.00 60 1017.8
20260508163503 85 259 1.7 2.6 0.00 0.00 0.00 60 1017.6
20260508163403 85 257 1.7 2.6 0.00 0.00 0.00 60 1017.7
20260508163303 85 254 1.7 2.6 0.00 0.00 0.00 60 1017.7
20260508163224 85 247 1.7 2.6 0.00 0.00 0.00 60 1017.7
20260508163124 85 241 1.7 2.6 0.00 0.00 0.00 60 1017.9
20260508163003 85 235 1.7 2.6 0.00 0.00 0.00 60 1017.8
20260508162903 85 230 1.7 3.5 0.00 0.00 0.00 60 1017.8
20260508162803 85 225 2.6 3.5 0.00 0.00 0.00 60 1017.8
20260508162703 85 224 2.6 3.5 0.00 0.00 0.00 60 1017.8
20260508162603 85 215 2.6 5.2 0.00 0.00 0.00 60 1017.9
20260508162505 85 210 2.6 5.2 0.00 0.00 0.00 60 1017.9
20260508162403 85 206 2.6 5.2 0.00 0.00 0.00 60 1017.8
20260508162306 85 199 2.6 5.2 0.00 0.00 0.00 60 1017.6
20260508162203 85 194 2.6 5.2 0.00 0.00 0.00 60 1017.8
20260508162103 85 190 2.6 5.2 0.00 0.00 0.00 60 1017.8
20260508162003 85 183 3.5 5.2 0.00 0.00 0.00 60 1017.8
20260508161903 85 176 3.5 5.2 0.00 0.00 0.00 60 1017.7
20260508161803 85 169 3.5 5.2 0.00 0.00 0.00 60 1017.8
20260508161703 85 165 3.5 5.2 0.00 0.00 0.00 60 1017.8
20260508161603 85 164 3.5 5.2 0.00 0.00 0.00 60 1017.7
20260508161524 85 165 2.6 5.2 0.00 0.00 0.00 60 1017.8
20260508161403 85 160 2.6 5.2 0.00 0.00 0.00 60 1017.8
20260508161303 85 158 2.6 5.2 0.00 0.00 0.00 60 1017.8
20260508161203 85 155 2.6 5.2 0.00 0.00 0.00 60 1017.8
20260508161103 85 153 2.6 5.2 0.00 0.00 0.00 60 1017.7
20260508161003 85 149 2.6 5.2 0.00 0.00 0.00 60 1017.7
20260508160924 85 146 2.6 3.5 0.00 0.00 0.00 60 1017.8
20260508160804 85 139 1.7 3.5 0.00 0.00 0.00 60 1017.7
20260508160704 85 130 1.7 2.6 0.00 0.00 0.00 60 1017.9
20260508160604 85 124 1.7 2.6 0.00 0.00 0.00 60 1017.9
20260508160503 85 111 1.7 2.6 0.00 0.00 0.00 60 1017.9
20260508160403 85 102 0.9 2.6 0.00 0.00 0.00 60 1017.7
20260508160324 85 97 0.9 2.6 0.00 0.00 0.00 60 1017.7
20260508160203 85 359 0.9 2.6 0.00 0.00 0.00 60 1017.8
20260508160103 85 305 0.9 1.7 0.00 0.00 0.00 60 1017.8
20260508160003 85 279 0.9 2.6 0.00 0.00 0.00 60 1017.9
20260508155904 85 271 1.7 2.6 0.00 0.00 0.00 60 1017.7
20260508155803 85 263 1.7 2.6 0.00 0.00 0.00 60 1017.8
20260508155703 85 264 1.7 2.6 0.00 0.00 0.00 60 1017.8
20260508155603 85 262 1.7 2.6 0.00 0.00 0.00 60 1017.6
20260508155504 85 259 1.7 2.6 0.00 0.00 0.00 60 1017.6
20260508155403 85 258 1.7 2.6 0.00 0.00 0.00 60 1017.7
20260508155306 85 254 1.7 2.6 0.00 0.00 0.00 60 1017.7
20260508155203 85 246 1.7 2.6 0.00 0.00 0.00 60 1017.6
20260508155125 85 235 1.7 2.6 0.00 0.00 0.00 60 1017.5
20260508155004 85 225 1.7 2.6 0.00 0.00 0.00 60 1017.5
20260508154904 85 219 1.7 2.6 0.00 0.00 0.00 60 1017.5
20260508154804 85 184 0.9 2.6 0.00 0.00 0.00 60 1017.5
20260508154704 85 138 0.9 2.6 0.00 0.00 0.00 60 1017.6
20260508154603 85 117 0.9 2.6 0.00 0.00 0.00 60 1017.4
20260508154504 85 107 0.9 2.6 0.00 0.00 0.00 60 1017.4
20260508154403 85 96 0.9 2.6 0.00 0.00 0.00 60 1017.4
20260508154303 85 79 0.9 2.6 0.00 0.00 0.00 60 1017.5
20260508154203 85 28 0.9 2.6 0.00 0.00 0.00 60 1017.5
20260508154103 85 355 0.9 1.7 0.00 0.00 0.00 60 1017.5
20260508154004 85 325 0.9 1.7 0.00 0.00 0.00 60 1017.5
20260508153903 85 316 0.9 1.7 0.00 0.00 0.00 60 1017.6
20260508153803 85 318 0.9 2.6 0.00 0.00 0.00 60 1017.7
20260508153703 85 318 0.9 2.6 0.00 0.00 0.00 60 1017.7
20260508153603 85 317 0.9 2.6 0.00 0.00 0.00 60 1017.5
20260508153525 85 318 0.9 2.6 0.00 0.00 0.00 60 1017.5
20260508153425 85 317 0.9 2.6 0.00 0.00 0.00 60 1017.6
20260508153304 85 318 0.9 2.6 0.00 0.00 0.00 60 1017.5
20260508153203 85 315 0.9 2.6 0.00 0.00 0.00 60 1017.4
20260508153103 85 311 0.9 2.6 0.00 0.00 0.00 60 1017.5
20260508153004 85 302 0.9 2.6 0.00 0.00 0.00 60 1017.4
20260508152903 85 292 1.7 2.6 0.00 0.00 0.00 60 1017.4
20260508152804 85 268 1.7 2.6 0.00 0.00 0.00 60 1017.2
20260508152703 85 242 1.7 3.5 0.00 0.00 0.00 60 1017.4
20260508152603 85 226 1.7 3.5 0.00 0.00 0.00 60 1017.4
20260508152504 85 218 1.7 6.1 0.00 0.00 0.00 60 1017.3
20260508152403 85 215 2.6 6.1 0.00 0.00 0.00 60 1017.3
20260508152306 85 214 2.6 6.1 0.00 0.00 0.00 60 1017.3
20260508152203 85 209 2.6 6.1 0.00 0.00 0.00 60 1017.4
20260508152124 85 208 2.6 6.1 0.00 0.00 0.00 60 1017.4
20260508152024 85 208 3.5 6.1 0.00 0.00 0.00 60 1017.3
20260508151904 85 207 3.5 6.1 0.00 0.00 0.00 60 1017.3
20260508151824 85 207 3.5 6.1 0.00 0.00 0.00 60 1017.4
20260508151724 85 205 3.5 6.1 0.00 0.00 0.00 60 1017.2
20260508151603 85 208 3.5 6.1 0.00 0.00 0.00 60 1017.2
20260508151504 85 206 3.5 5.2 0.00 0.00 0.00 60 1017.3
20260508151403 85 205 3.5 5.2 0.00 0.00 0.00 60 1017.3
20260508151303 85 203 2.6 5.2 0.00 0.00 0.00 60 1017.3
20260508151204 85 201 2.6 5.2 0.00 0.00 0.00 60 1017.2
20260508151124 85 202 2.6 5.2 0.00 0.00 0.00 60 1017.1
20260508151024 85 197 2.6 5.2 0.00 0.00 0.00 60 1017.2
20260508150903 85 195 2.6 5.2 0.00 0.00 0.00 60 1017.0
20260508150824 85 194 2.6 3.5 0.00 0.00 0.00 60 1017.1
20260508150724 85 196 2.6 3.5 0.00 0.00 0.00 60 1017.0
20260508150603 85 193 2.6 3.5 0.00 0.00 0.00 60 1016.9
20260508150504 85 196 2.6 3.5 0.00 0.00 0.00 60 1017.0
20260508150404 85 194 2.6 3.5 0.00 0.00 0.00 60 1017.2
20260508150303 85 197 2.6 3.5 0.00 0.00 0.00 60 1017.0
20260508150204 85 201 2.6 3.5 0.00 0.00 0.00 60 1017.0
20260508150104 85 205 2.6 3.5 0.00 0.00 0.00 60 1017.1
20260508150004 85 210 1.7 3.5 0.00 0.00 0.00 60 1016.7
20260508145903 85 214 2.6 3.5 0.00 0.00 0.00 60 1016.9
20260508145824 85 210 2.6 3.5 0.00 0.00 0.00 60 1017.1
20260508145703 85 207 2.6 3.5 0.00 0.00 0.00 60 1016.9
20260508145603 85 205 2.6 3.5 0.00 0.00 0.00 60 1016.9
20260508145524 85 210 2.6 3.5 0.00 0.00 0.00 60 1016.9
20260508145424 85 213 2.6 3.5 0.00 0.00 0.00 60 1016.7
20260508145306 85 217 1.7 3.5 0.00 0.00 0.00 60 1016.7
20260508145224 85 218 1.7 3.5 0.00 0.00 0.00 60 1016.9
20260508145103 85 218 1.7 3.5 0.00 0.00 0.00 60 1016.9
20260508145003 85 217 1.7 3.5 0.00 0.00 0.00 60 1016.9
20260508144904 85 215 1.7 3.5 0.00 0.00 0.00 60 1017.1
20260508144803 85 220 1.7 2.6 0.00 0.00 0.00 60 1016.7
20260508144703 85 224 1.7 2.6 0.00 0.00 0.00 60 1016.7
20260508144603 85 228 1.7 2.6 0.00 0.00 0.00 60 1017.0
20260508144505 85 218 1.7 2.6 0.00 0.00 0.00 60 1017.0
20260508144403 85 209 1.7 2.6 0.00 0.00 0.00 60 1017.0
20260508144303 85 205 1.7 2.6 0.00 0.00 0.00 60 1017.0
20260508144224 85 203 1.7 2.6 0.00 0.00 0.00 60 1017.0
20260508144103 85 198 1.7 2.6 0.00 0.00 0.00 60 1017.0
20260508144003 85 196 1.7 2.6 0.00 0.00 0.00 60 1017.0
20260508143903 85 193 1.7 2.6 0.00 0.00 0.00 60 1016.7
20260508143803 85 188 1.7 2.6 0.00 0.00 0.00 60 1016.7
20260508143703 85 185 1.7 2.6 0.00 0.00 0.00 60 1016.7
20260508143603 85 183 1.7 3.5 0.00 0.00 0.00 60 1017.0
20260508143503 85 185 1.7 3.5 0.00 0.00 0.00 60 1017.0
20260508143404 85 194 1.7 3.5 0.00 0.00 0.00 60 1016.9
20260508143303 85 193 1.7 3.5 0.00 0.00 0.00 60 1016.9
20260508143203 85 193 1.7 3.5 0.00 0.00 0.00 60 1016.9
20260508143103 85 194 1.7 3.5 0.00 0.00 0.00 60 1017.0
20260508143004 85 200 1.7 3.5 0.00 0.00 0.00 60 1016.7
20260508142903 85 199 1.7 3.5 0.00 0.00 0.00 60 1016.7
20260508142824 85 199 1.7 3.5 0.00 0.00 0.00 60 1016.7
20260508142703 85 206 2.6 5.2 0.00 0.00 0.00 60 1016.9
20260508142603 85 212 2.6 5.2 0.00 0.00 0.00 60 1016.9
20260508142503 85 213 2.6 5.2 0.00 0.00 0.00 60 1016.6
20260508142403 85 208 2.6 5.2 0.00 0.00 0.00 60 1016.7
20260508142324 85 205 2.6 5.2 0.00 0.00 0.00 60 1016.7
20260508142226 85 205 2.6 5.2 0.00 0.00 0.00 60 1016.6
20260508142103 85 202 2.6 5.2 0.00 0.00 0.00 60 1016.9
20260508142024 85 201 2.6 5.2 0.00 0.00 0.00 60 1016.6
20260508141904 85 203 2.6 5.2 0.00 0.00 0.00 60 1016.6
20260508141803 85 213 2.6 5.2 0.00 0.00 0.00 60 1016.6
20260508141703 85 215 1.7 3.5 0.00 0.00 0.00 60 1016.6
20260508141603 85 210 1.7 3.5 0.00 0.00 0.00 60 1016.6
20260508141503 85 208 1.7 3.5 0.00 0.00 0.00 60 1017.0
20260508141403 85 225 1.7 2.6 0.00 0.00 0.00 60 1016.6
20260508141303 85 245 1.7 2.6 0.00 0.00 0.00 60 1016.6
20260508141203 85 269 0.9 2.6 0.00 0.00 0.00 60 1016.7
20260508141103 85 285 0.9 2.6 0.00 0.00 0.00 60 1016.7
20260508141003 85 289 0.9 2.6 0.00 0.00 0.00 60 1016.7
20260508140903 85 265 0.9 2.6 0.00 0.00 0.00 60 1016.7
20260508140803 85 192 0.9 2.6 0.00 0.00 0.00 60 1016.5
20260508140703 85 174 0.9 2.6 0.00 0.00 0.00 60 1016.6
20260508140605 85 182 1.7 3.5 0.00 0.00 0.00 60 1016.6
20260508140524 85 183 1.7 3.5 0.00 0.00 0.00 60 1016.6
20260508140424 85 179 1.7 3.5 0.00 0.00 0.00 60 1016.6
20260508140324 85 174 1.7 3.5 0.00 0.00 0.00 60 1016.6
20260508140224 85 174 1.7 3.5 0.00 0.00 0.00 60 1016.5
20260508140124 85 171 2.6 3.5 0.00 0.00 0.00 60 1016.6
20260508140004 85 176 2.6 3.5 0.00 0.00 0.00 60 1016.5
20260508135903 85 182 2.6 3.5 0.00 0.00 0.00 60 1016.5
20260508135804 85 180 2.6 3.5 0.00 0.00 0.00 60 1016.5
20260508135703 85 177 1.7 3.5 0.00 0.00 0.00 60 1016.5
20260508135624 85 174 1.7 3.5 0.00 0.00 0.00 60 1016.5
20260508135503 85 150 1.7 2.6 0.00 0.00 0.00 60 1016.4
20260508135424 85 141 1.7 2.6 0.00 0.00 0.00 60 1016.3
20260508135306 85 129 1.7 3.5 0.00 0.00 0.00 60 1016.4
20260508135203 85 131 2.6 5.2 0.00 0.00 0.00 60 1016.5
20260508135124 85 136 2.6 5.2 0.00 0.00 0.00 60 1016.4
20260508135005 85 139 2.6 5.2 0.00 0.00 0.00 60 1016.2
20260508134925 85 141 2.6 5.2 0.00 0.00 0.00 60 1016.2
20260508134803 85 148 2.6 5.2 0.00 0.00 0.00 60 1016.4
20260508134703 85 154 2.6 5.2 0.00 0.00 0.00 60 1016.3
20260508134603 85 159 2.6 5.2 0.00 0.00 0.00 60 1016.4
20260508134504 85 161 2.6 5.2 0.00 0.00 0.00 60 1016.4
20260508134403 85 168 3.5 5.2 0.00 0.00 0.00 60 1016.1
20260508134303 85 177 3.5 5.2 0.00 0.00 0.00 60 1016.3
20260508134203 85 184 3.5 5.2 0.00 0.00 0.00 60 1016.0
20260508134103 85 189 2.6 5.2 0.00 0.00 0.00 60 1016.0
20260508134003 85 195 3.5 5.2 0.00 0.00 0.00 60 1016.2
20260508133903 85 199 3.5 5.2 0.00 0.00 0.00 60 1016.0
20260508133803 85 202 3.5 5.2 0.00 0.00 0.00 60 1015.9
20260508133703 85 203 3.5 5.2 0.00 0.00 0.00 60 1015.9
20260508133604 85 209 3.5 5.2 0.00 0.00 0.00 60 1016.0
20260508133524 85 214 3.5 5.2 0.00 0.00 0.00 60 1016.1
20260508133404 85 224 3.5 5.2 0.00 0.00 0.00 60 1016.0
20260508133304 85 231 3.5 5.2 0.00 0.00 0.00 60 1016.0
20260508133224 85 232 2.6 5.2 0.00 0.00 0.00 60 1016.0
20260508133103 85 238 2.6 5.2 0.00 0.00 0.00 60 1015.9
20260508133004 85 246 2.6 3.5 0.00 0.00 0.00 60 1015.9
20260508132903 85 245 2.6 3.5 0.00 0.00 0.00 60 1016.0
20260508132803 85 248 2.6 3.5 0.00 0.00 0.00 60 1016.1
20260508132703 85 248 2.6 3.5 0.00 0.00 0.00 60 1015.9
20260508132604 85 242 2.6 3.5 0.00 0.00 0.00 60 1015.9
20260508132503 85 234 2.6 3.5 0.00 0.00 0.00 60 1016.1
20260508132403 85 228 2.6 3.5 0.00 0.00 0.00 60 1015.9
20260508132324 85 225 2.6 3.5 0.00 0.00 0.00 60 1015.9
20260508132203 85 229 2.6 5.2 0.00 0.00 0.00 60 1016.0
20260508132103 85 235 3.5 5.2 0.00 0.00 0.00 60 1015.9
20260508132003 85 237 3.5 5.2 0.00 0.00 0.00 60 1015.8
20260508131903 85 244 3.5 5.2 0.00 0.00 0.00 60 1015.9
20260508131803 85 248 3.5 5.2 0.00 0.00 0.00 60 1016.0
20260508131703 85 252 3.5 5.2 0.00 0.00 0.00 60 1015.9
20260508131603 85 256 3.5 5.2 0.00 0.00 0.00 60 1015.9
20260508131503 85 267 3.5 5.2 0.00 0.00 0.00 60 1015.9
20260508131426 85 273 3.5 5.2 0.00 0.00 0.00 60 1015.9
20260508131303 85 276 3.5 5.2 0.00 0.00 0.00 60 1015.6
20260508131203 85 276 3.5 5.2 0.00 0.00 0.00 60 1015.6
20260508131103 85 275 3.5 5.2 0.00 0.00 0.00 60 1015.8
20260508131004 85 273 3.5 5.2 0.00 0.00 0.00 60 1015.6
20260508130903 85 272 3.5 5.2 0.00 0.00 0.00 60 1015.8
20260508130803 85 272 2.6 3.5 0.00 0.00 0.00 60 1015.6
20260508130703 85 272 3.5 3.5 0.00 0.00 0.00 60 1015.8
20260508130603 85 270 3.5 3.5 0.00 0.00 0.00 60 1015.6
20260508130503 85 267 2.6 3.5 0.00 0.00 0.00 60 1015.6
20260508130403 85 264 2.6 3.5 0.00 0.00 0.00 60 1015.6
20260508130303 85 265 2.6 3.5 0.00 0.00 0.00 60 1015.8
20260508130203 85 272 2.6 3.5 0.00 0.00 0.00 60 1015.8
20260508130103 85 275 2.6 3.5 0.00 0.00 0.00 60 1015.8
20260508130003 85 281 2.6 3.5 0.00 0.00 0.00 60 1015.5
20260508125903 85 284 2.6 3.5 0.00 0.00 0.00 60 1015.5
20260508125803 85 290 2.6 3.5 0.00 0.00 0.00 60 1015.5
20260508125703 85 296 2.6 3.5 0.00 0.00 0.00 60 1015.5
20260508125604 85 301 2.6 3.5 0.00 0.00 0.00 60 1015.5
20260508125525 85 308 2.6 3.5 0.00 0.00 0.00 60 1015.5
20260508125403 85 317 2.6 3.5 0.00 0.00 0.00 60 1015.5
20260508125324 85 318 2.6 5.2 0.00 0.00 0.00 60 1015.5
20260508125203 85 322 2.6 5.2 0.00 0.00 0.00 60 1015.5
20260508125103 85 324 2.6 5.2 0.00 0.00 0.00 60 1015.5
20260508125003 85 327 3.5 5.2 0.00 0.00 0.00 60 1015.4
20260508124903 85 338 2.6 5.2 0.00 0.00 0.00 60 1015.4
20260508124803 85 338 3.5 5.2 0.00 0.00 0.00 60 1015.4
20260508124724 85 338 3.5 5.2 0.00 0.00 0.00 60 1015.4
20260508124624 85 352 3.5 6.1 0.00 0.00 0.00 60 1015.4
20260508124503 85 355 3.5 6.1 0.00 0.00 0.00 60 1015.4
20260508124403 85 357 3.5 6.1 0.00 0.00 0.00 60 1015.4
20260508124303 85 358 2.6 6.1 0.00 0.00 0.00 60 1015.4
20260508124203 85 4 2.6 6.1 0.00 0.00 0.00 60 1015.5
20260508124103 85 11 2.6 6.1 0.00 0.00 0.00 60 1015.4
20260508124003 85 13 1.7 6.1 0.00 0.00 0.00 60 1015.4
20260508123903 85 13 1.7 6.1 0.00 0.00 0.00 60 1015.5
20260508123826 85 17 1.7 6.1 0.00 0.00 0.00 60 1015.3
20260508123703 85 26 1.7 6.1 0.00 0.00 0.00 60 1015.3
20260508123603 85 19 0.9 2.6 0.00 0.00 0.00 60 1015.4
20260508123503 85 21 0.9 1.7 0.00 0.00 0.00 60 1015.4
20260508123403 85 55 0.9 1.7 0.00 0.00 0.00 60 1015.3
20260508123303 85 80 0.0 0.9 0.00 0.00 0.00 60 1015.3
20260508123203 85 80 0.0 0.9 0.00 0.00 0.00 60 1015.4
20260508123103 85 80 0.0 0.9 0.00 0.00 0.00 60 1015.3
20260508123003 85 87 0.0 0.9 0.00 0.00 0.00 60 1015.2
20260508122903 85 105 0.9 1.7 0.00 0.00 0.00 60 1015.3
20260508122824 85 112 0.9 1.7 0.00 0.00 0.00 60 1015.2
20260508122703 85 134 0.9 1.7 0.00 0.00 0.00 60 1015.2
20260508122603 85 136 0.9 1.7 0.00 0.00 0.00 60 1015.3
20260508122503 85 137 0.9 1.7 0.00 0.00 0.00 60 1015.2
20260508122403 85 140 0.9 1.7 0.00 0.00 0.00 60 1015.2
20260508122306 85 147 1.7 1.7 0.00 0.00 0.00 60 1015.2
20260508122203 85 149 0.9 1.7 0.00 0.00 0.00 60 1015.3
20260508122103 85 152 0.9 1.7 0.00 0.00 0.00 60 1015.1
20260508122003 85 153 0.9 1.7 0.00 0.00 0.00 60 1015.1
20260508121905 85 152 1.7 2.6 0.00 0.00 0.00 60 1015.3
20260508121803 85 140 0.9 2.6 0.00 0.00 0.00 60 1015.2
20260508121724 85 137 0.9 2.6 0.00 0.00 0.00 60 1015.1
20260508121603 85 135 0.9 2.6 0.00 0.00 0.00 60 1015.0
20260508121503 85 131 0.9 2.6 0.00 0.00 0.00 60 1015.0
20260508121426 85 130 0.9 2.6 0.00 0.00 0.00 60 1015.0
20260508121303 85 100 0.9 2.6 0.00 0.00 0.00 60 1015.0
20260508121203 85 105 0.9 2.6 0.00 0.00 0.00 60 1015.1
20260508121103 85 102 0.9 2.6 0.00 0.00 0.00 60 1015.0
20260508121003 85 92 0.9 2.6 0.00 0.00 0.00 60 1015.0
20260508120904 85 35 0.0 1.7 0.00 0.00 0.00 60 1015.0
20260508120805 85 313 0.0 0.9 0.00 0.00 0.00 60 1015.0
20260508120704 85 296 0.0 0.9 0.00 0.00 0.00 60 1014.9
20260508120624 85 290 0.0 1.7 0.00 0.00 0.00 60 1015.0
20260508120504 85 276 0.9 2.6 0.00 0.00 0.00 60 1015.0
20260508120405 85 275 0.9 3.5 0.00 0.00 0.00 60 1015.0
20260508120305 85 274 0.9 3.5 0.00 0.00 0.00 60 1015.0
20260508120203 85 271 1.7 3.5 0.00 0.00 0.00 60 1014.8
20260508120103 85 270 1.7 3.5 0.00 0.00 0.00 60 1014.8
20260508120003 85 270 1.7 3.5 0.00 0.00 0.00 60 1014.9
20260508115903 85 267 2.6 6.1 0.00 0.00 0.00 60 1014.8
20260508115803 85 265 2.6 6.1 0.00 0.00 0.00 60 1014.8
20260508115703 85 262 3.5 6.1 0.00 0.00 0.00 60 1014.8
20260508115624 85 262 3.5 6.1 0.00 0.00 0.00 60 1014.8
20260508115503 85 260 3.5 6.1 0.00 0.00 0.00 60 1014.9
20260508115403 85 260 3.5 6.1 0.00 0.00 0.00 60 1014.7
20260508115306 85 262 3.5 6.1 0.00 0.00 0.00 60 1014.7
20260508115204 85 266 3.5 6.1 0.00 0.00 0.00 60 1014.7
20260508115103 85 266 3.5 6.1 0.00 0.00 0.00 60 1014.8
20260508115003 85 265 4.3 6.1 0.00 0.00 0.00 60 1014.6
20260508114903 85 266 3.5 6.1 0.00 0.00 0.00 60 1014.7
20260508114803 85 268 3.5 7.0 0.00 0.00 0.00 60 1014.7
20260508114703 85 269 3.5 7.0 0.00 0.00 0.00 60 1014.7
20260508114624 85 268 3.5 7.0 0.00 0.00 0.00 60 1014.7
20260508114503 85 270 3.5 7.0 0.00 0.00 0.00 60 1014.6
20260508114405 85 269 4.3 7.0 0.00 0.00 0.00 60 1014.6
20260508114324 85 270 3.5 7.0 0.00 0.00 0.00 60 1014.7
20260508114203 85 264 3.5 7.0 0.00 0.00 0.00 60 1014.8
20260508114103 85 262 3.5 7.0 0.00 0.00 0.00 60 1014.8
20260508114003 85 256 3.5 7.0 0.00 0.00 0.00 60 1014.6
20260508113903 85 253 3.5 7.0 0.00 0.00 0.00 60 1014.7
20260508113824 85 254 3.5 7.0 0.00 0.00 0.00 60 1014.6
20260508113703 85 252 3.5 7.0 0.00 0.00 0.00 60 1014.5
20260508113603 85 250 3.5 7.0 0.00 0.00 0.00 60 1014.6
20260508113503 85 249 3.5 7.0 0.00 0.00 0.00 60 1014.4
20260508113424 85 249 3.5 7.0 0.00 0.00 0.00 60 1014.6
20260508113303 85 248 3.5 7.0 0.00 0.00 0.00 60 1014.5
20260508113224 85 249 3.5 7.0 0.00 0.00 0.00 60 1014.5
20260508113124 85 251 3.5 7.0 0.00 0.00 0.00 60 1014.6
20260508113005 85 257 3.5 7.0 0.00 0.00 0.00 60 1014.5
20260508112903 85 260 3.5 7.0 0.00 0.00 0.00 60 1014.5
20260508112804 85 261 3.5 7.0 0.00 0.00 0.00 60 1014.7
20260508112745 85 262 3.5 7.0 0.00 0.00 0.00 60 1014.6
20260508112603 85 267 3.5 7.0 0.00 0.00 0.00 60 1014.6
20260508112503 85 267 3.5 7.0 0.00 0.00 0.00 60 1014.6
20260508112403 85 264 3.5 7.0 0.00 0.00 0.00 60 1014.6
20260508112306 85 260 4.3 9.6 0.00 0.00 0.00 60 1014.6
20260508112203 85 259 4.3 9.6 0.00 0.00 0.00 60 1014.7
20260508112104 85 257 4.3 9.6 0.00 0.00 0.00 60 1014.7
20260508112003 85 254 5.2 9.6 0.00 0.00 0.00 60 1014.5
20260508111903 85 252 5.2 9.6 0.00 0.00 0.00 60 1014.6
20260508111804 85 249 5.2 9.6 0.00 0.00 0.00 60 1014.6
20260508111703 85 247 6.1 9.6 0.00 0.00 0.00 60 1014.6
20260508111624 85 248 5.2 9.6 0.00 0.00 0.00 60 1014.6
20260508111503 85 245 6.1 9.6 0.00 0.00 0.00 60 1014.6
20260508111403 85 246 6.1 9.6 0.00 0.00 0.00 60 1014.6
20260508111303 85 248 6.1 8.7 0.00 0.00 0.00 60 1014.6
20260508111203 85 249 6.1 8.7 0.00 0.00 0.00 60 1014.7
20260508111106 85 247 6.1 8.7 0.00 0.00 0.00 60 1014.5
20260508111003 85 249 6.1 8.7 0.00 0.00 0.00 60 1014.7
20260508110904 85 248 6.1 8.7 0.00 0.00 0.00 60 1014.7
20260508110803 85 247 6.1 9.6 0.00 0.00 0.00 60 1014.5
20260508110703 85 247 6.1 9.6 0.00 0.00 0.00 60 1014.6
20260508110603 85 247 7.0 9.6 0.00 0.00 0.00 60 1014.4
20260508110503 85 251 7.0 9.6 0.00 0.00 0.00 60 1014.6
20260508110404 85 250 7.0 11.3 0.00 0.00 0.00 60 1014.5
20260508110303 85 250 7.0 11.3 0.00 0.00 0.00 60 1014.6
20260508110224 85 249 7.0 11.3 0.00 0.00 0.00 60 1014.6
20260508110104 85 250 7.0 11.3 0.00 0.00 0.00 60 1014.6
20260508110003 85 249 7.8 11.3 0.00 0.00 0.00 60 1014.5
20260508105903 85 251 7.8 11.3 0.00 0.00 0.00 60 1014.6
20260508105805 85 252 7.8 11.3 0.00 0.00 0.00 60 1014.6
20260508105703 85 254 7.8 11.3 0.00 0.00 0.00 60 1014.5
20260508105603 85 255 7.8 11.3 0.00 0.00 0.00 60 1014.5
20260508105505 85 254 7.8 11.3 0.00 0.00 0.00 60 1014.5
20260508105403 85 255 7.8 11.3 0.00 0.00 0.00 60 1014.5
20260508105306 85 257 7.8 11.3 0.00 0.00 0.00 60 1014.5
20260508105224 85 260 7.8 11.3 0.00 0.00 0.00 60 1014.4
20260508105103 85 259 7.8 11.3 0.00 0.00 0.00 60 1014.5
20260508105003 85 261 7.8 11.3 0.00 0.00 0.00 60 1014.5
20260508104903 85 261 7.8 11.3 0.00 0.00 0.00 60 1014.4
20260508104803 85 263 7.8 11.3 0.00 0.00 0.00 60 1014.4
20260508104703 85 266 7.8 11.3 0.00 0.00 0.00 60 1014.2
20260508104603 85 267 7.8 11.3 0.00 0.00 0.00 60 1014.6
20260508104503 85 266 7.8 11.3 0.00 0.00 0.00 60 1014.4
20260508104403 85 265 7.8 9.6 0.00 0.00 0.00 60 1014.5
20260508104303 85 264 7.8 9.6 0.00 0.00 0.00 60 1014.4
20260508104203 85 264 7.0 9.6 0.00 0.00 0.00 60 1014.5
20260508104103 85 267 7.0 9.6 0.00 0.00 0.00 60 1014.2
20260508104003 85 266 7.0 9.6 0.00 0.00 0.00 60 1014.5
20260508103903 85 268 7.0 9.6 0.00 0.00 0.00 60 1014.5
20260508103804 85 271 7.0 9.6 0.00 0.00 0.00 60 1014.1
20260508103703 85 270 7.0 9.6 0.00 0.00 0.00 60 1014.4
20260508103603 85 273 6.1 9.6 0.00 0.00 0.00 60 1014.4
20260508103503 85 277 6.1 8.7 0.00 0.00 0.00 60 1014.5
20260508103403 85 277 6.1 9.6 0.00 0.00 0.00 60 1014.4
20260508103303 85 282 6.1 9.6 0.00 0.00 0.00 60 1014.1
20260508103203 85 278 6.1 9.6 0.00 0.00 0.00 60 1014.4
20260508103103 85 276 6.1 9.6 0.00 0.00 0.00 60 1014.4
20260508103003 85 275 7.0 9.6 0.00 0.00 0.00 60 1014.4
20260508102903 85 277 7.0 9.6 0.00 0.00 0.00 60 1014.2
20260508102803 85 275 7.0 9.6 0.00 0.00 0.00 60 1014.2
20260508102703 85 272 7.0 9.6 0.00 0.00 0.00 60 1014.2
20260508102603 85 269 7.0 9.6 0.00 0.00 0.00 60 1014.2
20260508102524 85 268 7.0 9.6 0.00 0.00 0.00 60 1014.4
20260508102403 85 271 7.0 9.6 0.00 0.00 0.00 60 1014.4
20260508102324 85 270 7.0 9.6 0.00 0.00 0.00 60 1014.2
20260508102204 85 273 7.0 9.6 0.00 0.00 0.00 60 1014.2
20260508102103 85 274 6.1 9.6 0.00 0.00 0.00 60 1014.2
20260508102003 85 274 6.1 9.6 0.00 0.00 0.00 60 1014.1
20260508101903 85 278 6.1 9.6 0.00 0.00 0.00 60 1014.2
20260508101803 85 275 5.2 8.7 0.00 0.00 0.00 60 1014.1
20260508101703 85 278 5.2 8.7 0.00 0.00 0.00 60 1014.2
20260508101603 85 274 4.3 8.7 0.00 0.00 0.00 60 1014.2
20260508101503 85 268 5.2 8.7 0.00 0.00 0.00 60 1014.2
20260508101403 85 268 4.3 8.7 0.00 0.00 0.00 60 1014.4
20260508101324 85 266 5.2 8.7 0.00 0.00 0.00 60 1014.4
20260508101203 85 260 4.3 7.8 0.00 0.00 0.00 60 1014.1
20260508101103 85 263 5.2 7.8 0.00 0.00 0.00 60 1014.6
20260508101003 85 261 5.2 7.8 0.00 0.00 0.00 60 1014.1
20260508100903 85 260 5.2 7.8 0.00 0.00 0.00 60 1014.4
20260508100824 85 260 5.2 7.8 0.00 0.00 0.00 60 1014.4
20260508100703 85 264 6.1 7.8 0.00 0.00 0.00 60 1014.5
20260508100603 85 268 6.1 7.8 0.00 0.00 0.00 60 1014.5
20260508100503 85 270 5.2 7.8 0.00 0.00 0.00 60 1014.4
20260508100403 85 271 6.1 7.8 0.00 0.00 0.00 60 1014.4
20260508100303 85 274 5.2 7.8 0.00 0.00 0.00 60 1014.4
20260508100203 85 281 5.2 7.8 0.00 0.00 0.00 60 1014.2
20260508100103 85 279 5.2 7.8 0.00 0.00 0.00 60 1014.4
20260508100004 85 281 5.2 7.8 0.00 0.00 0.00 60 1014.4
20260508095903 85 282 5.2 7.8 0.00 0.00 0.00 60 1014.4
20260508095803 85 277 5.2 7.8 0.00 0.00 0.00 60 1014.2
20260508095703 85 275 5.2 7.8 0.00 0.00 0.00 60 1014.4
20260508095603 85 276 5.2 7.8 0.00 0.00 0.00 60 1014.4
20260508095503 85 280 4.3 7.8 0.00 0.00 0.00 60 1014.2
20260508095403 85 281 4.3 7.8 0.00 0.00 0.00 60 1014.4
20260508095306 85 274 4.3 7.8 0.00 0.00 0.00 60 1014.5
20260508095203 85 269 4.3 7.8 0.00 0.00 0.00 60 1014.5
20260508095124 85 269 4.3 7.8 0.00 0.00 0.00 60 1014.5
20260508095005 85 273 4.3 7.8 0.00 0.00 0.00 60 1014.6
20260508094903 85 278 4.3 7.8 0.00 0.00 0.00 60 1014.6
20260508094804 85 281 3.5 7.8 0.00 0.00 0.00 60 1014.4
20260508094704 85 292 3.5 7.0 0.00 0.00 0.00 60 1014.5
20260508094603 85 291 3.5 7.0 0.00 0.00 0.00 60 1014.4
20260508094504 85 294 3.5 7.0 0.00 0.00 0.00 60 1014.5
20260508094403 85 300 3.5 7.0 0.00 0.00 0.00 60 1014.5
20260508094304 85 317 2.6 7.0 0.00 0.00 0.00 60 1014.2
20260508094203 85 333 2.6 5.2 0.00 0.00 0.00 60 1014.4
20260508094104 85 338 2.6 5.2 0.00 0.00 0.00 60 1014.4
20260508094003 85 335 2.6 5.2 0.00 0.00 0.00 60 1014.4
20260508093904 85 339 2.6 6.1 0.00 0.00 0.00 60 1014.5
20260508093803 85 343 3.5 6.1 0.00 0.00 0.00 60 1014.5
20260508093703 85 349 3.5 6.1 0.00 0.00 0.00 60 1014.5
20260508093603 85 354 3.5 6.1 0.00 0.00 0.00 60 1014.6
20260508093524 85 360 4.3 7.0 0.00 0.00 0.00 60 1014.7
20260508093403 85 360 4.3 7.0 0.00 0.00 0.00 60 1014.5
20260508093305 85 7 4.3 7.0 0.00 0.00 0.00 60 1014.4
20260508093203 85 13 4.3 7.0 0.00 0.00 0.00 60 1014.4
20260508093103 85 14 4.3 7.0 0.00 0.00 0.00 60 1014.4
20260508093003 85 15 5.2 7.0 0.00 0.00 0.00 60 1014.5
20260508092904 85 16 4.3 7.0 0.00 0.00 0.00 60 1014.5
20260508092804 85 15 4.3 7.0 0.00 0.00 0.00 60 1014.6
20260508092703 85 13 4.3 7.0 0.00 0.00 0.00 60 1014.6
20260508092604 85 15 4.3 7.8 0.00 0.00 0.00 60 1014.8
20260508092503 85 11 4.3 7.8 0.00 0.00 0.00 60 1014.6
20260508092404 85 14 4.3 7.8 0.00 0.00 0.00 60 1014.6
20260508092312 85 12 4.3 7.8 0.00 0.00 0.00 60 1014.7
20260508092203 85 4 4.3 7.8 0.00 0.00 0.00 60 1014.6
20260508092103 85 3 4.3 7.8 0.00 0.00 0.00 60 1014.6
20260508092003 85 4 3.5 7.8 0.00 0.00 0.00 60 1014.6
20260508091904 85 359 3.5 7.8 0.00 0.00 0.00 60 1014.7
20260508091804 85 358 4.3 7.8 0.00 0.00 0.00 60 1014.5
20260508091705 85 358 4.3 7.8 0.00 0.00 0.00 60 1014.5
20260508091624 85 357 4.3 7.8 0.00 0.00 0.00 60 1014.6
20260508091504 85 360 4.3 7.8 0.00 0.00 0.00 60 1014.5
20260508091403 85 360 4.3 8.7 0.00 0.00 0.00 60 1014.5
20260508091303 85 356 4.3 8.7 0.00 0.00 0.00 60 1014.5
20260508091204 85 3 4.3 8.7 0.00 0.00 0.00 60 1014.6
20260508091124 85 9 4.3 8.7 0.00 0.00 0.00 60 1014.8
20260508091024 85 16 4.3 8.7 0.00 0.00 0.00 60 1014.7
20260508090903 85 22 4.3 8.7 0.00 0.00 0.00 60 1014.7
20260508090803 85 25 4.3 8.7 0.00 0.00 0.00 60 1014.7
20260508090703 85 29 4.3 8.7 0.00 0.00 0.00 60 1014.8
20260508090603 85 30 4.3 8.7 0.00 0.00 0.00 60 1014.9
20260508090504 85 29 4.3 8.7 0.00 0.00 0.00 60 1014.9
20260508090403 85 35 3.5 7.0 0.00 0.00 0.00 60 1014.7
20260508090303 85 39 3.5 7.0 0.00 0.00 0.00 60 1014.9
20260508090204 85 37 3.5 7.0 0.00 0.00 0.00 60 1014.8
20260508090104 85 33 3.5 7.0 0.00 0.00 0.00 60 1014.8
20260508090004 85 27 3.5 6.1 0.00 0.00 0.00 60 1015.0
20260508085903 85 26 3.5 6.1 0.00 0.00 0.00 60 1014.9
20260508085826 85 27 4.3 6.1 0.00 0.00 0.00 60 1014.9
20260508085703 85 24 3.5 6.1 0.00 0.00 0.00 60 1014.9
20260508085604 85 26 3.5 6.1 0.00 0.00 0.00 60 1014.9
20260508085524 85 28 3.5 6.1 0.00 0.00 0.00 60 1014.9
20260508085403 85 26 3.5 6.1 0.00 0.00 0.00 60 1015.0
20260508085306 85 27 3.5 6.1 0.00 0.00 0.00 60 1015.0
20260508085203 85 31 3.5 6.1 0.00 0.00 0.00 60 1015.0
20260508085103 85 39 3.5 6.1 0.00 0.00 0.00 60 1015.0
20260508085003 85 41 2.6 6.1 0.00 0.00 0.00 60 1015.1
20260508084925 85 42 2.6 6.1 0.00 0.00 0.00 60 1015.1
20260508084803 85 39 2.6 5.2 0.00 0.00 0.00 60 1015.1
20260508084704 85 39 1.7 5.2 0.00 0.00 0.00 60 1015.1
20260508084603 85 30 1.7 5.2 0.00 0.00 0.00 60 1015.1
20260508084524 85 26 1.7 5.2 0.00 0.00 0.00 60 1015.1
20260508084403 85 33 1.7 5.2 0.00 0.00 0.00 60 1015.1
20260508084303 85 36 2.6 5.2 0.00 0.00 0.00 60 1015.1
20260508084204 85 41 2.6 5.2 0.00 0.00 0.00 60 1015.3
20260508084104 85 37 2.6 5.2 0.00 0.00 0.00 60 1015.3
20260508084004 85 41 2.6 5.2 0.00 0.00 0.00 60 1015.2
20260508083904 85 46 2.6 5.2 0.00 0.00 0.00 60 1015.2
20260508083804 85 49 2.6 5.2 0.00 0.00 0.00 60 1015.2
20260508083703 85 49 2.6 5.2 0.00 0.00 0.00 60 1015.2
20260508083603 85 47 2.6 7.0 0.00 0.00 0.00 60 1015.3
20260508083503 85 47 3.5 7.0 0.00 0.00 0.00 60 1015.3
20260508083403 85 43 3.5 7.0 0.00 0.00 0.00 60 1015.3
20260508083304 85 39 3.5 7.0 0.00 0.00 0.00 60 1015.3
20260508083204 85 37 3.5 7.0 0.00 0.00 0.00 60 1015.2
20260508083103 85 39 3.5 7.0 0.00 0.00 0.00 60 1015.3
20260508083004 85 37 3.5 7.0 0.00 0.00 0.00 60 1015.3
20260508082924 85 36 3.5 7.0 0.00 0.00 0.00 60 1015.3
20260508082804 85 28 3.5 7.0 0.00 0.00 0.00 60 1015.4
20260508082703 85 27 3.5 7.0 0.00 0.00 0.00 60 1015.3
20260508082603 85 27 3.5 5.2 0.00 0.00 0.00 60 1015.4
20260508082505 85 28 3.5 5.2 0.00 0.00 0.00 60 1015.4
20260508082405 85 24 3.5 6.1 0.00 0.00 0.00 60 1015.2
20260508082306 85 20 3.5 6.1 0.00 0.00 0.00 60 1015.4
20260508082203 85 15 3.5 6.1 0.00 0.00 0.00 60 1015.3
20260508082125 85 13 3.5 6.1 0.00 0.00 0.00 60 1015.3
20260508082005 85 14 3.5 7.0 0.00 0.00 0.00 60 1015.2
20260508081904 85 21 3.5 7.8 0.00 0.00 0.00 60 1015.3
20260508081824 85 26 4.3 7.8 0.00 0.00 0.00 60 1015.3
20260508081704 85 32 4.3 7.8 0.00 0.00 0.00 60 1015.3
20260508081605 85 32 4.3 7.8 0.00 0.00 0.00 60 1015.5
20260508081504 85 33 4.3 7.8 0.00 0.00 0.00 60 1015.4
20260508081404 85 39 4.3 7.8 0.00 0.00 0.00 60 1015.4
20260508081326 85 40 5.2 7.8 0.00 0.00 0.00 60 1015.4
20260508081205 85 45 5.2 7.8 0.00 0.00 0.00 60 1015.4
20260508081103 85 51 5.2 7.8 0.00 0.00 0.00 60 1015.6
20260508081003 85 50 5.2 7.8 0.00 0.00 0.00 60 1015.4
20260508080903 85 50 5.2 7.8 0.00 0.00 0.00 60 1015.4
20260508080826 85 49 5.2 7.8 0.00 0.00 0.00 60 1015.4
20260508080603 85 49 4.3 7.8 0.00 0.00 0.00 60 1015.5
20260508080503 85 50 4.3 7.8 0.00 0.00 0.00 60 1015.5
20260508080403 85 49 3.5 7.8 0.00 0.00 0.00 60 1015.6
20260508080305 85 48 3.5 7.8 0.00 0.00 0.00 60 1015.5
20260508080204 85 50 2.6 7.0 0.00 0.00 0.00 60 1015.6
20260508080103 85 46 2.6 7.0 0.00 0.00 0.00 60 1015.6
20260508080004 85 44 1.7 6.1 0.00 0.00 0.00 60 1015.6
20260508075903 85 28 1.7 3.5 0.00 0.00 0.00 60 1015.6
20260508075803 85 20 0.9 3.5 0.00 0.00 0.00 60 1015.6
20260508075703 85 285 0.9 2.6 0.00 0.00 0.00 60 1015.6
20260508075603 85 258 0.9 2.6 0.00 0.00 0.00 60 1015.8
20260508075503 85 255 0.9 2.6 0.00 0.00 0.00 60 1015.9
20260508075404 85 251 1.7 2.6 0.00 0.00 0.00 60 1015.9
20260508075308 85 255 1.7 2.6 0.00 0.00 0.00 60 1015.9
20260508075203 85 257 1.7 2.6 0.00 0.00 0.00 60 1015.9
20260508075104 85 261 1.7 2.6 0.00 0.00 0.00 60 1015.6
20260508075003 85 269 1.7 2.6 0.00 0.00 0.00 60 1015.8
20260508074903 85 271 1.7 2.6 0.00 0.00 0.00 60 1015.8
20260508074803 85 274 1.7 2.6 0.00 0.00 0.00 60 1015.8
20260508074705 85 277 1.7 2.6 0.00 0.00 0.00 60 1016.0
20260508074604 85 281 1.7 2.6 0.00 0.00 0.00 60 1015.8
20260508074503 85 284 1.7 2.6 0.00 0.00 0.00 60 1015.8
20260508074403 85 289 1.7 2.6 0.00 0.00 0.00 60 1016.1
20260508074303 85 303 1.7 3.5 0.00 0.00 0.00 60 1015.9
20260508074203 85 320 1.7 3.5 0.00 0.00 0.00 60 1015.9
20260508074124 85 331 1.7 3.5 0.00 0.00 0.00 60 1015.9
20260508074003 85 57 1.7 3.5 0.00 0.00 0.00 60 1016.1
20260508073903 85 94 1.7 3.5 0.00 0.00 0.00 60 1015.9
20260508073824 85 118 1.7 3.5 0.00 0.00 0.00 60 1016.0
20260508073703 85 138 1.7 3.5 0.00 0.00 0.00 60 1016.0
20260508073624 85 146 1.7 3.5 0.00 0.00 0.00 60 1015.9
20260508073503 85 172 1.7 3.5 0.00 0.00 0.00 60 1016.1
20260508073403 85 183 2.6 3.5 0.00 0.00 0.00 60 1016.0
20260508073303 85 203 2.6 5.2 0.00 0.00 0.00 60 1016.0
20260508073204 85 208 2.6 5.2 0.00 0.00 0.00 60 1016.0
20260508073103 85 210 2.6 5.2 0.00 0.00 0.00 60 1016.2
20260508073004 85 210 2.6 5.2 0.00 0.00 0.00 60 1016.2
20260508072904 85 211 2.6 5.2 0.00 0.00 0.00 60 1016.2
20260508072803 85 220 2.6 5.2 0.00 0.00 0.00 60 1016.2
20260508072704 85 227 2.6 5.2 0.00 0.00 0.00 60 1016.2
20260508072603 85 234 1.7 5.2 0.00 0.00 0.00 60 1016.1
20260508072503 85 239 1.7 5.2 0.00 0.00 0.00 60 1016.1
20260508072403 85 244 1.7 5.2 0.00 0.00 0.00 60 1016.1
20260508072324 85 256 1.7 5.2 0.00 0.00 0.00 60 1016.1
20260508072203 85 312 1.7 7.0 0.00 0.00 0.00 60 1016.2
20260508072104 85 325 1.7 7.0 0.00 0.00 0.00 60 1016.2
20260508072004 85 324 2.6 7.8 0.00 0.00 0.00 60 1016.2
20260508071903 85 322 3.5 7.8 0.00 0.00 0.00 60 1016.3
20260508071824 85 321 3.5 7.8 0.00 0.00 0.00 60 1016.2
20260508071704 85 318 3.5 7.8 0.00 0.00 0.00 60 1016.2
20260508071603 85 326 4.3 7.8 0.00 0.00 0.00 60 1016.3
20260508071503 85 326 4.3 7.8 0.00 0.00 0.00 60 1016.4
20260508071403 85 328 4.3 7.8 0.00 0.00 0.00 60 1016.2
20260508071303 85 326 4.3 7.8 0.00 0.00 0.00 60 1016.2
20260508071203 85 323 3.5 7.8 0.00 0.00 0.00 60 1016.5
20260508071103 85 324 3.5 7.8 0.00 0.00 0.00 60 1016.4
20260508071005 85 329 3.5 7.0 0.00 0.00 0.00 60 1016.5
20260508070903 85 332 2.6 6.1 0.00 0.00 0.00 60 1016.5
20260508070803 85 340 2.6 6.1 0.00 0.00 0.00 60 1016.4
20260508070703 85 347 2.6 6.1 0.00 0.00 0.00 60 1016.3
20260508070624 85 338 1.7 6.1 0.00 0.00 0.00 60 1016.3
20260508070526 85 333 1.7 3.5 0.00 0.00 0.00 60 1016.3
20260508070405 85 303 2.6 3.5 0.00 0.00 0.00 60 1016.5
20260508070303 85 299 2.6 5.2 0.00 0.00 0.00 60 1016.2
20260508070204 85 295 2.6 5.2 0.00 0.00 0.00 60 1016.5
20260508070104 85 296 2.6 6.1 0.00 0.00 0.00 60 1016.5
20260508070004 85 295 3.5 6.1 0.00 0.00 0.00 60 1016.4
20260508065903 85 296 3.5 7.0 0.00 0.00 0.00 60 1016.5
20260508065803 85 296 3.5 7.0 0.00 0.00 0.00 60 1016.4
20260508065704 85 298 3.5 7.0 0.00 0.00 0.00 60 1016.4
20260508065624 85 303 3.5 7.0 0.00 0.00 0.00 60 1016.5
20260508065524 85 309 3.5 7.0 0.00 0.00 0.00 60 1016.6
20260508065405 85 320 3.5 7.0 0.00 0.00 0.00 60 1016.5
20260508065306 85 323 3.5 7.0 0.00 0.00 0.00 60 1016.6
20260508065203 85 328 3.5 7.0 0.00 0.00 0.00 60 1016.5
20260508065103 85 329 3.5 7.0 0.00 0.00 0.00 60 1016.7
20260508065003 85 327 3.5 7.0 0.00 0.00 0.00 60 1016.5
20260508064924 85 327 3.5 6.1 0.00 0.00 0.00 60 1016.6
20260508064803 85 320 3.5 6.1 0.00 0.01 0.00 60 1016.7
20260508064705 85 319 3.5 6.1 0.00 0.01 0.00 60 1016.5
20260508064603 85 324 3.5 6.1 0.00 0.01 0.00 60 1016.7
20260508064503 85 331 4.3 6.1 0.00 0.01 0.00 60 1016.7
20260508064403 85 336 4.3 6.1 0.00 0.01 0.00 60 1016.7
20260508064303 85 339 3.5 6.1 0.00 0.01 0.00 60 1016.6
20260508064203 85 346 3.5 6.1 0.00 0.01 0.00 60 1016.7
20260508064103 85 1 3.5 6.1 0.00 0.02 0.00 60 1016.7
20260508064003 85 34 3.5 6.1 0.00 0.03 0.00 60 1016.7
20260508063903 85 49 3.5 6.1 0.00 0.03 0.00 60 1016.6
20260508063824 85 56 3.5 6.1 0.00 0.03 0.00 60 1016.6
20260508063703 85 74 2.6 6.1 0.00 0.04 0.00 60 1016.6
20260508063605 85 86 2.6 6.1 0.00 0.04 0.00 60 1017.1
20260508063503 85 94 2.6 3.5 0.00 0.04 0.00 60 1017.0
20260508063403 85 96 2.6 3.5 0.00 0.04 0.00 60 1016.9
20260508063303 85 97 2.6 3.5 0.00 0.04 0.00 60 1017.0
20260508063204 85 89 2.6 5.2 0.00 0.04 0.00 60 1016.9
20260508063103 85 83 2.6 7.0 0.00 0.04 0.00 60 1017.1
20260508063003 85 84 3.5 7.0 0.00 0.04 0.00 60 1017.0
20260508062903 85 86 2.6 7.0 0.00 0.04 0.00 60 1017.0
20260508062803 85 94 3.5 7.0 0.00 0.04 0.00 60 1017.1
20260508062724 85 99 3.5 7.0 0.00 0.04 0.00 60 1017.0
20260508062603 85 93 3.5 7.0 0.00 0.04 0.00 60 1017.0
20260508062524 85 93 3.5 7.0 0.00 0.04 0.00 60 1017.0
20260508062403 85 85 2.6 7.0 0.00 0.04 0.00 60 1017.2
20260508062306 85 78 2.6 7.0 0.00 0.04 0.00 60 1017.1
20260508062203 85 88 2.6 7.0 0.00 0.04 0.00 60 1017.1
20260508062103 85 89 2.6 3.5 0.00 0.04 0.00 60 1017.1
20260508062005 85 64 1.7 3.5 0.00 0.04 0.00 60 1017.1
20260508061924 85 50 1.7 3.5 0.00 0.04 0.00 60 1017.3
20260508061803 85 27 1.7 3.5 0.00 0.04 0.00 60 1017.3
20260508061704 85 27 1.7 3.5 0.00 0.04 0.00 60 1017.3
20260508061603 85 21 1.7 5.2 0.00 0.04 0.00 60 1017.2
20260508061503 85 22 2.6 5.2 0.00 0.04 0.00 60 1017.4
20260508061403 85 21 2.6 5.2 0.00 0.04 0.00 60 1017.5
20260508061303 85 19 2.6 5.2 0.00 0.04 0.00 60 1017.5
20260508061203 85 12 2.6 5.2 0.00 0.04 0.00 60 1017.5
20260508061124 85 10 2.6 5.2 0.00 0.04 0.00 60 1017.5
20260508061003 85 11 2.6 5.2 0.00 0.04 0.00 60 1017.3
20260508060924 85 11 2.6 5.2 0.00 0.04 0.00 60 1017.3
20260508060803 85 12 2.6 5.2 0.00 0.04 0.00 60 1017.4
20260508060703 85 20 3.5 5.2 0.00 0.04 0.00 60 1017.5
20260508060603 85 21 2.6 5.2 0.00 0.04 0.00 60 1017.3
20260508060503 85 20 2.6 5.2 0.00 0.04 0.00 60 1017.3
20260508060424 85 20 2.6 5.2 0.00 0.04 0.00 60 1017.5
20260508060303 85 16 1.7 5.2 0.00 0.04 0.00 60 1017.7
20260508060205 85 15 1.7 5.2 0.00 0.04 0.00 60 1017.6
20260508060103 85 11 1.7 5.2 0.00 0.04 0.00 60 1017.6
20260508060004 85 5 2.6 5.2 0.00 0.04 0.00 60 1017.6
20260508055903 85 357 2.6 5.2 0.00 0.04 0.00 60 1017.7
20260508055803 85 355 1.7 5.2 0.00 0.04 0.00 60 1017.7
20260508055703 85 342 1.7 3.5 0.00 0.04 0.00 60 1017.7
20260508055624 85 339 1.7 3.5 0.00 0.04 0.00 60 1017.7
20260508055504 85 335 1.7 3.5 0.00 0.04 0.00 60 1017.7
20260508055424 85 335 1.7 3.5 0.00 0.04 0.00 60 1017.5
20260508055306 85 344 2.6 6.1 0.00 0.04 0.00 60 1017.7
20260508055203 85 4 2.6 6.1 0.00 0.04 0.00 60 1017.6
20260508055103 85 21 2.6 6.1 0.00 0.04 0.00 60 1017.8
20260508055003 85 32 2.6 6.1 0.00 0.04 0.00 60 1017.7